Wetterdaten: Freitag, 12.12.2014
Datum Zeit Temp. Aussen +5cm Feuchte Auss Luftdruck Regen Sonnenschein Regendauer Solar Windben
12.12.2014 00:00 6,9 C 5,6 C 89 % 1007,8 hPa 0,0 l/m 0 min 2 min 0 W/m 33,5 km/h (5 Bft)
12.12.2014 00:02 6,9 C 5,0 C 89 % 1007,9 hPa 0,0 l/m 0 min 2 min 0 W/m 31,4 km/h (5 Bft)
12.12.2014 00:05 6,9 C 5,0 C 89 % 1007,8 hPa 0,0 l/m 0 min 2 min 0 W/m 35,6 km/h (5 Bft)
12.12.2014 00:06 6,9 C 5,0 C 89 % 1007,8 hPa 0,0 l/m 0 min 1 min 0 W/m 37,7 km/h (5 Bft)
12.12.2014 00:08 6,9 C 5,0 C 89 % 1007,8 hPa 0,0 l/m 0 min 2 min 0 W/m 35,6 km/h (5 Bft)
12.12.2014 00:10 6,9 C 5,0 C 89 % 1007,8 hPa 0,2 l/m 0 min 2 min 0 W/m 35,6 km/h (5 Bft)
12.12.2014 00:12 6,9 C 5,0 C 90 % 1007,7 hPa 0,0 l/m 0 min 2 min 0 W/m 33,5 km/h (5 Bft)
12.12.2014 00:14 6,9 C 5,0 C 90 % 1007,9 hPa 0,0 l/m 0 min 2 min 0 W/m 33,5 km/h (5 Bft)
12.12.2014 00:16 6,9 C 5,0 C 90 % 1007,6 hPa 0,0 l/m 0 min 2 min 0 W/m 31,4 km/h (5 Bft)
12.12.2014 00:18 6,9 C 5,0 C 91 % 1007,6 hPa 0,0 l/m 0 min 2 min 0 W/m 31,4 km/h (5 Bft)
12.12.2014 00:20 6,8 C 5,0 C 90 % 1007,7 hPa 0,0 l/m 0 min 2 min 0 W/m 33,5 km/h (5 Bft)
12.12.2014 00:22 6,8 C 5,0 C 91 % 1007,5 hPa 0,0 l/m 0 min 2 min 0 W/m 25,1 km/h (4 Bft)
12.12.2014 00:24 6,8 C 5,0 C 91 % 1007,5 hPa 0,0 l/m 0 min 2 min 0 W/m 31,4 km/h (5 Bft)
12.12.2014 00:26 6,8 C 5,0 C 91 % 1007,6 hPa 0,0 l/m 0 min 2 min 0 W/m 41,8 km/h (6 Bft)
12.12.2014 00:28 6,8 C 5,0 C 91 % 1007,6 hPa 0,0 l/m 0 min 2 min 0 W/m 33,5 km/h (5 Bft)
12.12.2014 00:30 6,7 C 5,0 C 92 % 1007,6 hPa 0,0 l/m 0 min 2 min 0 W/m 31,4 km/h (5 Bft)
12.12.2014 00:32 6,7 C 5,0 C 92 % 1007,6 hPa 0,2 l/m 0 min 2 min 0 W/m 39,7 km/h (6 Bft)
12.12.2014 00:34 6,7 C 5,0 C 92 % 1007,3 hPa 0,0 l/m 0 min 2 min 0 W/m 33,5 km/h (5 Bft)
12.12.2014 00:36 6,7 C 5,0 C 92 % 1007,4 hPa 0,0 l/m 0 min 2 min 0 W/m 39,7 km/h (6 Bft)
12.12.2014 00:38 6,7 C 5,0 C 92 % 1007,3 hPa 0,0 l/m 0 min 2 min 0 W/m 20,9 km/h (4 Bft)
12.12.2014 00:40 6,7 C 5,0 C 92 % 1007,2 hPa 0,0 l/m 0 min 2 min 0 W/m 33,5 km/h (5 Bft)
12.12.2014 00:42 6,7 C 5,0 C 92 % 1007,2 hPa 0,2 l/m 0 min 2 min 0 W/m 25,1 km/h (4 Bft)
12.12.2014 00:44 6,7 C 5,0 C 93 % 1007,2 hPa 0,0 l/m 0 min 2 min 0 W/m 25,1 km/h (4 Bft)
12.12.2014 00:46 6,6 C 5,0 C 93 % 1007,2 hPa 0,0 l/m 0 min 2 min 0 W/m 23,0 km/h (4 Bft)
12.12.2014 00:48 6,6 C 4,4 C 93 % 1007,2 hPa 0,0 l/m 0 min 2 min 0 W/m 20,9 km/h (4 Bft)
12.12.2014 00:50 6,6 C 5,0 C 93 % 1007,1 hPa 0,0 l/m 0 min 2 min 0 W/m 27,2 km/h (4 Bft)
12.12.2014 00:52 6,6 C 5,0 C 93 % 1006,9 hPa 0,0 l/m 0 min 2 min 0 W/m 16,7 km/h (3 Bft)
12.12.2014 00:54 6,6 C 5,0 C 93 % 1006,9 hPa 0,0 l/m 0 min 2 min 0 W/m 20,9 km/h (4 Bft)
12.12.2014 00:56 6,6 C 5,0 C 93 % 1006,8 hPa 0,0 l/m 0 min 2 min 0 W/m 33,5 km/h (5 Bft)
12.12.2014 00:58 6,6 C 5,0 C 93 % 1006,7 hPa 0,0 l/m 0 min 2 min 0 W/m 33,5 km/h (5 Bft)
12.12.2014 01:00 6,6 C 5,0 C 93 % 1006,6 hPa 0,0 l/m 0 min 2 min 0 W/m 37,7 km/h (5 Bft)
12.12.2014 01:02 6,6 C 5,0 C 93 % 1006,6 hPa 0,0 l/m 0 min 2 min 0 W/m 27,2 km/h (4 Bft)
12.12.2014 01:04 6,6 C 5,0 C 94 % 1006,5 hPa 0,0 l/m 0 min 2 min 0 W/m 31,4 km/h (5 Bft)
12.12.2014 01:06 6,6 C 5,0 C 94 % 1006,5 hPa 0,0 l/m 0 min 2 min 0 W/m 39,7 km/h (6 Bft)
12.12.2014 01:08 6,6 C 5,0 C 94 % 1006,4 hPa 0,0 l/m 0 min 2 min 0 W/m 35,6 km/h (5 Bft)
12.12.2014 01:10 6,6 C 5,0 C 94 % 1006,5 hPa 0,0 l/m 0 min 0 min 0 W/m 25,1 km/h (4 Bft)
12.12.2014 01:12 6,6 C 5,0 C 94 % 1006,5 hPa 0,0 l/m 0 min 0 min 0 W/m 23,0 km/h (4 Bft)
12.12.2014 01:14 6,7 C 5,0 C 94 % 1006,4 hPa 0,0 l/m 0 min 0 min 0 W/m 25,1 km/h (4 Bft)
12.12.2014 01:16 6,7 C 5,0 C 94 % 1006,5 hPa 0,0 l/m 0 min 0 min 0 W/m 33,5 km/h (5 Bft)
12.12.2014 01:18 6,7 C 5,0 C 94 % 1006,4 hPa 0,0 l/m 0 min 0 min 0 W/m 27,2 km/h (4 Bft)
12.12.2014 01:20 6,7 C 5,0 C 94 % 1006,3 hPa 0,0 l/m 0 min 0 min 0 W/m 29,3 km/h (5 Bft)
12.12.2014 01:22 6,7 C 5,0 C 94 % 1006,4 hPa 0,0 l/m 0 min 0 min 0 W/m 35,6 km/h (5 Bft)
12.12.2014 01:24 6,7 C 5,0 C 94 % 1006,5 hPa 0,0 l/m 0 min 0 min 0 W/m 27,2 km/h (4 Bft)
12.12.2014 01:26 6,7 C 5,0 C 94 % 1006,5 hPa 0,0 l/m 0 min 0 min 0 W/m 31,4 km/h (5 Bft)
12.12.2014 01:28 6,8 C 5,0 C 94 % 1006,4 hPa 0,0 l/m 0 min 0 min 0 W/m 23,0 km/h (4 Bft)
12.12.2014 01:30 6,8 C 5,0 C 95 % 1006,5 hPa 0,0 l/m 0 min 0 min 0 W/m 29,3 km/h (5 Bft)
12.12.2014 01:32 6,8 C 5,0 C 95 % 1006,4 hPa 0,0 l/m 0 min 0 min 0 W/m 33,5 km/h (5 Bft)
12.12.2014 01:34 6,8 C 5,0 C 95 % 1006,3 hPa 0,0 l/m 0 min 2 min 0 W/m 37,7 km/h (5 Bft)
12.12.2014 01:36 6,8 C 5,0 C 95 % 1006,2 hPa 0,0 l/m 0 min 2 min 0 W/m 33,5 km/h (5 Bft)
12.12.2014 01:38 6,9 C 5,0 C 95 % 1006,2 hPa 0,0 l/m 0 min 0 min 0 W/m 41,8 km/h (6 Bft)
12.12.2014 01:40 6,9 C 5,0 C 95 % 1006,1 hPa 0,0 l/m 0 min 2 min 0 W/m 29,3 km/h (5 Bft)
12.12.2014 01:42 6,9 C 5,0 C 95 % 1006,2 hPa 0,0 l/m 0 min 2 min 0 W/m 37,7 km/h (5 Bft)
12.12.2014 01:44 6,9 C 5,0 C 95 % 1006,1 hPa 0,0 l/m 0 min 2 min 0 W/m 27,2 km/h (4 Bft)
12.12.2014 01:46 6,9 C 5,0 C 95 % 1006,2 hPa 0,2 l/m 0 min 2 min 0 W/m 39,7 km/h (6 Bft)
12.12.2014 01:48 7,0 C 5,0 C 95 % 1006,1 hPa 0,0 l/m 0 min 2 min 0 W/m 41,8 km/h (6 Bft)
12.12.2014 01:50 7,0 C 5,0 C 95 % 1006,2 hPa 0,0 l/m 0 min 2 min 0 W/m 35,6 km/h (5 Bft)
12.12.2014 01:52 7,0 C 5,6 C 95 % 1006,0 hPa 0,2 l/m 0 min 2 min 0 W/m 50,2 km/h (7 Bft)
12.12.2014 01:54 7,1 C 5,6 C 95 % 1006,0 hPa 0,0 l/m 0 min 2 min 0 W/m 37,7 km/h (5 Bft)
12.12.2014 01:56 7,1 C 5,6 C 95 % 1006,0 hPa 0,0 l/m 0 min 2 min 0 W/m 35,6 km/h (5 Bft)
12.12.2014 01:58 7,1 C 5,6 C 95 % 1006,0 hPa 0,0 l/m 0 min 2 min 0 W/m 57,6 km/h (7 Bft)
12.12.2014 02:00 7,1 C 5,6 C 95 % 1005,9 hPa 0,0 l/m 0 min 2 min 0 W/m 52,3 km/h (7 Bft)
12.12.2014 02:02 7,1 C 5,6 C 95 % 1006,0 hPa 0,0 l/m 0 min 2 min 0 W/m 31,4 km/h (5 Bft)
12.12.2014 02:04 7,1 C 5,6 C 95 % 1005,9 hPa 0,0 l/m 0 min 2 min 0 W/m 31,4 km/h (5 Bft)
12.12.2014 02:06 7,1 C 5,6 C 95 % 1006,0 hPa 0,0 l/m 0 min 2 min 0 W/m 33,5 km/h (5 Bft)
12.12.2014 02:08 7,1 C 5,6 C 95 % 1006,1 hPa 0,2 l/m 0 min 2 min 0 W/m 31,4 km/h (5 Bft)
12.12.2014 02:10 7,1 C 5,6 C 95 % 1006,1 hPa 0,0 l/m 0 min 2 min 0 W/m 43,9 km/h (6 Bft)
12.12.2014 02:12 7,1 C 5,6 C 95 % 1006,0 hPa 0,2 l/m 0 min 2 min 0 W/m 37,7 km/h (5 Bft)
12.12.2014 02:14 7,2 C 5,6 C 95 % 1005,9 hPa 0,0 l/m 0 min 2 min 0 W/m 31,4 km/h (5 Bft)
12.12.2014 02:16 7,2 C 5,6 C 95 % 1005,8 hPa 0,2 l/m 0 min 2 min 0 W/m 37,7 km/h (5 Bft)
12.12.2014 02:18 7,2 C 5,6 C 95 % 1005,9 hPa 0,2 l/m 0 min 2 min 0 W/m 33,5 km/h (5 Bft)
12.12.2014 02:20 7,2 C 5,6 C 95 % 1005,9 hPa 0,0 l/m 0 min 2 min 0 W/m 31,4 km/h (5 Bft)
12.12.2014 02:22 7,2 C 5,6 C 95 % 1005,9 hPa 0,0 l/m 0 min 2 min 0 W/m 37,7 km/h (5 Bft)
12.12.2014 02:24 7,2 C 5,6 C 95 % 1005,9 hPa 0,0 l/m 0 min 2 min 0 W/m 27,2 km/h (4 Bft)
12.12.2014 02:26 7,2 C 5,6 C 95 % 1005,8 hPa 0,0 l/m 0 min 2 min 0 W/m 33,5 km/h (5 Bft)
12.12.2014 02:28 7,2 C 5,6 C 95 % 1005,8 hPa 0,0 l/m 0 min 2 min 0 W/m 27,2 km/h (4 Bft)
12.12.2014 02:30 7,2 C 5,6 C 95 % 1005,8 hPa 0,0 l/m 0 min 2 min 0 W/m 31,4 km/h (5 Bft)
12.12.2014 02:32 7,2 C 5,6 C 95 % 1005,7 hPa 0,0 l/m 0 min 0 min 0 W/m 23,0 km/h (4 Bft)
12.12.2014 02:34 7,2 C 5,6 C 95 % 1005,8 hPa 0,0 l/m 0 min 0 min 0 W/m 20,9 km/h (4 Bft)
12.12.2014 02:36 7,2 C 5,6 C 95 % 1005,6 hPa 0,0 l/m 0 min 0 min 0 W/m 23,0 km/h (4 Bft)
12.12.2014 02:38 7,1 C 5,6 C 95 % 1005,5 hPa 0,0 l/m 0 min 0 min 0 W/m 35,6 km/h (5 Bft)
12.12.2014 02:40 7,1 C 5,6 C 95 % 1005,5 hPa 0,0 l/m 0 min 0 min 0 W/m 46,0 km/h (6 Bft)
12.12.2014 02:42 7,1 C 5,6 C 95 % 1005,4 hPa 0,0 l/m 0 min 0 min 0 W/m 41,8 km/h (6 Bft)
12.12.2014 02:44 7,1 C 5,6 C 95 % 1005,3 hPa 0,0 l/m 0 min 0 min 0 W/m 31,4 km/h (5 Bft)
12.12.2014 02:46 7,1 C 5,6 C 95 % 1005,2 hPa 0,0 l/m 0 min 0 min 0 W/m 35,6 km/h (5 Bft)
12.12.2014 02:48 7,1 C 5,6 C 95 % 1005,3 hPa 0,0 l/m 0 min 0 min 0 W/m 37,7 km/h (5 Bft)
12.12.2014 02:50 7,2 C 5,6 C 95 % 1005,2 hPa 0,0 l/m 0 min 0 min 0 W/m 27,2 km/h (4 Bft)
12.12.2014 02:52 7,2 C 5,6 C 95 % 1005,1 hPa 0,0 l/m 0 min 0 min 0 W/m 35,6 km/h (5 Bft)
12.12.2014 02:54 7,2 C 5,6 C 95 % 1005,2 hPa 0,0 l/m 0 min 0 min 0 W/m 27,2 km/h (4 Bft)
12.12.2014 02:56 7,2 C 5,6 C 95 % 1005,0 hPa 0,0 l/m 0 min 0 min 0 W/m 35,6 km/h (5 Bft)
12.12.2014 02:58 7,2 C 5,6 C 95 % 1005,2 hPa 0,0 l/m 0 min 0 min 0 W/m 41,8 km/h (6 Bft)
12.12.2014 03:00 7,2 C 5,6 C 95 % 1005,1 hPa 0,0 l/m 0 min 0 min 0 W/m 27,2 km/h (4 Bft)
12.12.2014 03:02 7,2 C 5,6 C 95 % 1005,1 hPa 0,0 l/m 0 min 0 min 0 W/m 33,5 km/h (5 Bft)
12.12.2014 03:04 7,2 C 5,6 C 95 % 1005,1 hPa 0,0 l/m 0 min 0 min 0 W/m 33,5 km/h (5 Bft)
12.12.2014 03:06 7,2 C 5,6 C 95 % 1005,2 hPa 0,0 l/m 0 min 0 min 0 W/m 33,5 km/h (5 Bft)
12.12.2014 03:08 7,3 C 5,6 C 95 % 1005,0 hPa 0,0 l/m 0 min 0 min 0 W/m 35,6 km/h (5 Bft)
12.12.2014 03:10 7,3 C 5,6 C 95 % 1005,0 hPa 0,0 l/m 0 min 0 min 0 W/m 39,7 km/h (6 Bft)
12.12.2014 03:12 7,3 C 5,6 C 95 % 1005,0 hPa 0,0 l/m 0 min 2 min 0 W/m 37,7 km/h (5 Bft)
12.12.2014 03:14 7,3 C 5,6 C 95 % 1005,0 hPa 0,0 l/m 0 min 2 min 0 W/m 37,7 km/h (5 Bft)
12.12.2014 03:16 7,3 C 5,6 C 95 % 1004,8 hPa 0,2 l/m 0 min 2 min 0 W/m 41,8 km/h (6 Bft)
12.12.2014 03:18 7,4 C 5,6 C 95 % 1004,8 hPa 0,0 l/m 0 min 2 min 0 W/m 33,5 km/h (5 Bft)
12.12.2014 03:20 7,4 C 5,6 C 95 % 1004,9 hPa 0,0 l/m 0 min 2 min 0 W/m 35,6 km/h (5 Bft)
12.12.2014 03:22 7,4 C 5,6 C 95 % 1004,6 hPa 0,0 l/m 0 min 2 min 0 W/m 37,7 km/h (5 Bft)
12.12.2014 03:24 7,4 C 5,6 C 95 % 1004,7 hPa 0,0 l/m 0 min 0 min 0 W/m 43,9 km/h (6 Bft)
12.12.2014 03:26 7,4 C 5,6 C 95 % 1004,6 hPa 0,0 l/m 0 min 0 min 0 W/m 37,7 km/h (5 Bft)
12.12.2014 03:28 7,4 C 5,6 C 94 % 1004,6 hPa 0,0 l/m 0 min 0 min 0 W/m 33,5 km/h (5 Bft)
12.12.2014 03:30 7,4 C 5,6 C 94 % 1004,5 hPa 0,0 l/m 0 min 0 min 0 W/m 27,2 km/h (4 Bft)
12.12.2014 03:32 7,4 C 5,6 C 94 % 1004,5 hPa 0,0 l/m 0 min 0 min 0 W/m 39,7 km/h (6 Bft)
12.12.2014 03:34 7,4 C 5,6 C 94 % 1004,5 hPa 0,0 l/m 0 min 0 min 0 W/m 27,2 km/h (4 Bft)
12.12.2014 03:36 7,4 C 5,6 C 94 % 1004,5 hPa 0,0 l/m 0 min 0 min 0 W/m 37,7 km/h (5 Bft)
12.12.2014 03:38 7,4 C 5,6 C 94 % 1004,5 hPa 0,0 l/m 0 min 0 min 0 W/m 35,6 km/h (5 Bft)
12.12.2014 03:40 7,5 C 5,6 C 93 % 1004,6 hPa 0,0 l/m 0 min 0 min 0 W/m 46,0 km/h (6 Bft)
12.12.2014 03:42 7,5 C 5,6 C 93 % 1004,5 hPa 0,0 l/m 0 min 0 min 0 W/m 48,1 km/h (6 Bft)
12.12.2014 03:44 7,5 C 5,6 C 93 % 1004,4 hPa 0,0 l/m 0 min 2 min 0 W/m 37,7 km/h (5 Bft)
12.12.2014 03:46 7,6 C 5,6 C 93 % 1004,4 hPa 0,0 l/m 0 min 0 min 0 W/m 41,8 km/h (6 Bft)
12.12.2014 03:48 7,6 C 5,6 C 93 % 1004,2 hPa 0,0 l/m 0 min 0 min 0 W/m 46,0 km/h (6 Bft)
12.12.2014 03:50 7,6 C 5,6 C 93 % 1004,3 hPa 0,0 l/m 0 min 0 min 0 W/m 37,7 km/h (5 Bft)
12.12.2014 03:52 7,6 C 5,6 C 92 % 1004,2 hPa 0,0 l/m 0 min 0 min 0 W/m 43,9 km/h (6 Bft)
12.12.2014 03:54 7,7 C 5,6 C 92 % 1004,2 hPa 0,0 l/m 0 min 0 min 0 W/m 33,5 km/h (5 Bft)
12.12.2014 03:56 7,7 C 5,6 C 92 % 1004,3 hPa 0,0 l/m 0 min 0 min 0 W/m 37,7 km/h (5 Bft)
12.12.2014 03:58 7,7 C 5,6 C 92 % 1004,2 hPa 0,0 l/m 0 min 0 min 0 W/m 31,4 km/h (5 Bft)
12.12.2014 04:00 7,7 C 5,6 C 91 % 1004,2 hPa 0,0 l/m 0 min 0 min 0 W/m 37,7 km/h (5 Bft)
12.12.2014 04:02 7,7 C 5,6 C 91 % 1004,1 hPa 0,0 l/m 0 min 0 min 0 W/m 27,2 km/h (4 Bft)
12.12.2014 04:04 7,7 C 5,6 C 91 % 1004,1 hPa 0,0 l/m 0 min 0 min 0 W/m 37,7 km/h (5 Bft)
12.12.2014 04:06 7,8 C 5,6 C 91 % 1004,1 hPa 0,0 l/m 0 min 0 min 0 W/m 41,8 km/h (6 Bft)
12.12.2014 04:08 7,8 C 5,6 C 91 % 1004,0 hPa 0,0 l/m 0 min 0 min 0 W/m 37,7 km/h (5 Bft)
12.12.2014 04:10 7,8 C 5,6 C 91 % 1004,1 hPa 0,0 l/m 0 min 0 min 0 W/m 39,7 km/h (6 Bft)
12.12.2014 04:12 7,8 C 5,6 C 90 % 1004,0 hPa 0,0 l/m 0 min 0 min 0 W/m 46,0 km/h (6 Bft)
12.12.2014 04:14 7,8 C 5,6 C 90 % 1004,0 hPa 0,0 l/m 0 min 0 min 0 W/m 43,9 km/h (6 Bft)
12.12.2014 04:16 7,9 C 5,6 C 90 % 1004,0 hPa 0,0 l/m 0 min 0 min 0 W/m 29,3 km/h (5 Bft)
12.12.2014 04:18 7,9 C 5,6 C 90 % 1003,9 hPa 0,0 l/m 0 min 0 min 0 W/m 50,2 km/h (7 Bft)
12.12.2014 04:20 7,9 C 5,6 C 89 % 1004,0 hPa 0,0 l/m 0 min 0 min 0 W/m 37,7 km/h (5 Bft)
12.12.2014 04:22 7,9 C 5,6 C 89 % 1003,8 hPa 0,0 l/m 0 min 0 min 0 W/m 43,9 km/h (6 Bft)
12.12.2014 04:24 7,9 C 5,6 C 89 % 1003,8 hPa 0,0 l/m 0 min 0 min 0 W/m 46,0 km/h (6 Bft)
12.12.2014 04:26 7,9 C 5,6 C 89 % 1003,7 hPa 0,0 l/m 0 min 0 min 0 W/m 35,6 km/h (5 Bft)
12.12.2014 04:28 7,9 C 5,6 C 89 % 1003,8 hPa 0,0 l/m 0 min 0 min 0 W/m 37,7 km/h (5 Bft)
12.12.2014 04:30 8,0 C 5,6 C 88 % 1003,7 hPa 0,0 l/m 0 min 0 min 0 W/m 43,9 km/h (6 Bft)
12.12.2014 04:32 8,0 C 5,6 C 88 % 1003,7 hPa 0,0 l/m 0 min 0 min 0 W/m 29,3 km/h (5 Bft)
12.12.2014 04:34 8,0 C 5,6 C 88 % 1003,6 hPa 0,0 l/m 0 min 0 min 0 W/m 41,8 km/h (6 Bft)
12.12.2014 04:36 8,0 C 5,6 C 88 % 1003,6 hPa 0,0 l/m 0 min 0 min 0 W/m 23,0 km/h (4 Bft)
12.12.2014 04:38 8,0 C 5,6 C 88 % 1003,3 hPa 0,0 l/m 0 min 0 min 0 W/m 37,7 km/h (5 Bft)
12.12.2014 04:40 8,0 C 5,6 C 88 % 1003,4 hPa 0,0 l/m 0 min 0 min 0 W/m 29,3 km/h (5 Bft)
12.12.2014 04:42 8,0 C 5,6 C 88 % 1003,4 hPa 0,0 l/m 0 min 0 min 0 W/m 50,2 km/h (7 Bft)
12.12.2014 04:44 8,0 C 5,6 C 88 % 1003,3 hPa 0,0 l/m 0 min 0 min 0 W/m 35,6 km/h (5 Bft)
12.12.2014 04:46 8,0 C 5,6 C 87 % 1003,2 hPa 0,0 l/m 0 min 0 min 0 W/m 37,7 km/h (5 Bft)
12.12.2014 04:48 8,0 C 5,6 C 87 % 1003,1 hPa 0,0 l/m 0 min 0 min 0 W/m 35,6 km/h (5 Bft)
12.12.2014 04:50 7,9 C 5,6 C 87 % 1002,9 hPa 0,0 l/m 0 min 0 min 0 W/m 29,3 km/h (5 Bft)
12.12.2014 04:52 7,9 C 5,6 C 87 % 1002,9 hPa 0,0 l/m 0 min 0 min 0 W/m 37,7 km/h (5 Bft)
12.12.2014 04:54 7,9 C 5,6 C 87 % 1003,0 hPa 0,0 l/m 0 min 0 min 0 W/m 35,6 km/h (5 Bft)
12.12.2014 04:56 7,9 C 5,6 C 87 % 1002,9 hPa 0,0 l/m 0 min 0 min 0 W/m 35,6 km/h (5 Bft)
12.12.2014 04:58 7,9 C 5,6 C 87 % 1002,9 hPa 0,0 l/m 0 min 0 min 0 W/m 43,9 km/h (6 Bft)
12.12.2014 05:00 7,9 C 5,6 C 87 % 1002,8 hPa 0,0 l/m 0 min 0 min 0 W/m 31,4 km/h (5 Bft)
12.12.2014 05:02 7,9 C 5,6 C 87 % 1002,9 hPa 0,0 l/m 0 min 0 min 0 W/m 43,9 km/h (6 Bft)
12.12.2014 05:04 7,9 C 5,6 C 87 % 1002,8 hPa 0,0 l/m 0 min 0 min 0 W/m 48,1 km/h (6 Bft)
12.12.2014 05:06 7,9 C 5,6 C 87 % 1002,7 hPa 0,0 l/m 0 min 0 min 0 W/m 33,5 km/h (5 Bft)
12.12.2014 05:08 7,9 C 5,6 C 87 % 1002,7 hPa 0,0 l/m 0 min 0 min 0 W/m 46,0 km/h (6 Bft)
12.12.2014 05:10 7,9 C 5,6 C 87 % 1002,6 hPa 0,0 l/m 0 min 0 min 0 W/m 37,7 km/h (5 Bft)
12.12.2014 05:12 7,9 C 5,6 C 87 % 1002,6 hPa 0,0 l/m 0 min 0 min 0 W/m 31,4 km/h (5 Bft)
12.12.2014 05:14 8,0 C 5,6 C 87 % 1002,6 hPa 0,0 l/m 0 min 0 min 0 W/m 35,6 km/h (5 Bft)
12.12.2014 05:16 8,0 C 5,6 C 87 % 1002,6 hPa 0,0 l/m 0 min 0 min 0 W/m 25,1 km/h (4 Bft)
12.12.2014 05:18 8,0 C 5,6 C 87 % 1002,5 hPa 0,0 l/m 0 min 0 min 0 W/m 41,8 km/h (6 Bft)
12.12.2014 05:20 8,0 C 5,6 C 87 % 1002,5 hPa 0,0 l/m 0 min 0 min 0 W/m 39,7 km/h (6 Bft)
12.12.2014 05:22 8,0 C 5,6 C 87 % 1002,5 hPa 0,0 l/m 0 min 0 min 0 W/m 33,5 km/h (5 Bft)
12.12.2014 05:24 8,0 C 5,6 C 87 % 1002,5 hPa 0,0 l/m 0 min 0 min 0 W/m 37,7 km/h (5 Bft)
12.12.2014 05:26 8,0 C 5,6 C 86 % 1002,5 hPa 0,0 l/m 0 min 0 min 0 W/m 50,2 km/h (7 Bft)
12.12.2014 05:28 8,0 C 5,6 C 86 % 1002,3 hPa 0,0 l/m 0 min 0 min 0 W/m 46,0 km/h (6 Bft)
12.12.2014 05:30 8,0 C 5,6 C 86 % 1002,4 hPa 0,0 l/m 0 min 0 min 0 W/m 37,7 km/h (5 Bft)
12.12.2014 05:32 8,0 C 5,6 C 86 % 1002,4 hPa 0,0 l/m 0 min 0 min 0 W/m 52,3 km/h (7 Bft)
12.12.2014 05:34 8,1 C 5,6 C 86 % 1002,3 hPa 0,0 l/m 0 min 0 min 0 W/m 31,4 km/h (5 Bft)
12.12.2014 05:36 8,1 C 5,6 C 86 % 1002,4 hPa 0,0 l/m 0 min 0 min 0 W/m 41,8 km/h (6 Bft)
12.12.2014 05:38 8,1 C 5,6 C 86 % 1002,3 hPa 0,0 l/m 0 min 0 min 0 W/m 41,8 km/h (6 Bft)
12.12.2014 05:40 8,1 C 5,6 C 86 % 1002,1 hPa 0,0 l/m 0 min 0 min 0 W/m 50,2 km/h (7 Bft)
12.12.2014 05:42 8,1 C 5,6 C 86 % 1002,1 hPa 0,0 l/m 0 min 0 min 0 W/m 43,9 km/h (6 Bft)
12.12.2014 05:44 8,1 C 5,6 C 86 % 1002,2 hPa 0,0 l/m 0 min 0 min 0 W/m 43,9 km/h (6 Bft)
12.12.2014 05:46 8,1 C 5,6 C 86 % 1002,0 hPa 0,0 l/m 0 min 0 min 0 W/m 37,7 km/h (5 Bft)
12.12.2014 05:48 8,1 C 5,6 C 86 % 1001,9 hPa 0,0 l/m 0 min 0 min 0 W/m 41,8 km/h (6 Bft)
12.12.2014 05:50 8,1 C 5,6 C 86 % 1002,0 hPa 0,0 l/m 0 min 0 min 0 W/m 27,2 km/h (4 Bft)
12.12.2014 05:52 8,1 C 5,6 C 86 % 1001,9 hPa 0,0 l/m 0 min 0 min 0 W/m 23,0 km/h (4 Bft)
12.12.2014 05:54 8,1 C 5,6 C 86 % 1001,9 hPa 0,0 l/m 0 min 0 min 0 W/m 35,6 km/h (5 Bft)
12.12.2014 05:56 8,1 C 6,1 C 86 % 1001,8 hPa 0,0 l/m 0 min 0 min 0 W/m 48,1 km/h (6 Bft)
12.12.2014 05:58 8,1 C 5,6 C 86 % 1001,6 hPa 0,0 l/m 0 min 2 min 0 W/m 39,7 km/h (6 Bft)
12.12.2014 06:00 8,1 C 5,6 C 86 % 1001,6 hPa 0,0 l/m 0 min 2 min 0 W/m 33,5 km/h (5 Bft)
12.12.2014 06:02 8,1 C 5,6 C 86 % 1001,6 hPa 0,0 l/m 0 min 0 min 0 W/m 39,7 km/h (6 Bft)
12.12.2014 06:05 8,1 C 5,6 C 86 % 1001,7 hPa 0,0 l/m 0 min 0 min 0 W/m 46,0 km/h (6 Bft)
12.12.2014 06:08 8,1 C 5,6 C 86 % 1001,6 hPa 0,0 l/m 0 min 0 min 0 W/m 46,0 km/h (6 Bft)
12.12.2014 06:10 8,1 C 5,6 C 87 % 1001,6 hPa 0,0 l/m 0 min 0 min 0 W/m 35,6 km/h (5 Bft)
12.12.2014 06:12 8,1 C 5,6 C 87 % 1001,6 hPa 0,0 l/m 0 min 0 min 0 W/m 27,2 km/h (4 Bft)
12.12.2014 06:14 8,1 C 6,1 C 87 % 1001,4 hPa 0,0 l/m 0 min 0 min 0 W/m 29,3 km/h (5 Bft)
12.12.2014 06:16 8,1 C 6,1 C 87 % 1001,4 hPa 0,0 l/m 0 min 0 min 0 W/m 43,9 km/h (6 Bft)
12.12.2014 06:18 8,1 C 6,1 C 87 % 1001,3 hPa 0,0 l/m 0 min 0 min 0 W/m 43,9 km/h (6 Bft)
12.12.2014 06:20 8,1 C 6,1 C 86 % 1001,1 hPa 0,0 l/m 0 min 0 min 0 W/m 31,4 km/h (5 Bft)
12.12.2014 06:22 8,1 C 6,1 C 86 % 1001,0 hPa 0,0 l/m 0 min 0 min 0 W/m 25,1 km/h (4 Bft)
12.12.2014 06:24 8,1 C 6,1 C 86 % 1001,0 hPa 0,0 l/m 0 min 0 min 0 W/m 37,7 km/h (5 Bft)
12.12.2014 06:26 8,1 C 6,1 C 86 % 1001,0 hPa 0,0 l/m 0 min 0 min 0 W/m 37,7 km/h (5 Bft)
12.12.2014 06:28 8,1 C 6,1 C 86 % 1001,0 hPa 0,0 l/m 0 min 0 min 0 W/m 31,4 km/h (5 Bft)
12.12.2014 06:30 8,1 C 6,1 C 86 % 1000,9 hPa 0,0 l/m 0 min 0 min 0 W/m 46,0 km/h (6 Bft)
12.12.2014 06:32 8,2 C 6,1 C 86 % 1000,9 hPa 0,0 l/m 0 min 0 min 0 W/m 29,3 km/h (5 Bft)
12.12.2014 06:34 8,2 C 6,1 C 86 % 1000,8 hPa 0,0 l/m 0 min 0 min 0 W/m 33,5 km/h (5 Bft)
12.12.2014 06:36 8,2 C 6,1 C 86 % 1000,7 hPa 0,0 l/m 0 min 0 min 0 W/m 35,6 km/h (5 Bft)
12.12.2014 06:38 8,2 C 6,1 C 86 % 1000,8 hPa 0,0 l/m 0 min 0 min 0 W/m 43,9 km/h (6 Bft)
12.12.2014 06:40 8,2 C 6,1 C 85 % 1000,6 hPa 0,0 l/m 0 min 0 min 0 W/m 27,2 km/h (4 Bft)
12.12.2014 06:42 8,2 C 6,1 C 85 % 1000,5 hPa 0,0 l/m 0 min 0 min 0 W/m 41,8 km/h (6 Bft)
12.12.2014 06:44 8,2 C 6,1 C 85 % 1000,6 hPa 0,0 l/m 0 min 0 min 0 W/m 41,8 km/h (6 Bft)
12.12.2014 06:46 8,2 C 6,1 C 85 % 1000,5 hPa 0,0 l/m 0 min 0 min 0 W/m 52,3 km/h (7 Bft)
12.12.2014 06:48 8,3 C 6,1 C 85 % 1000,5 hPa 0,0 l/m 0 min 0 min 0 W/m 39,7 km/h (6 Bft)
12.12.2014 06:50 8,3 C 6,1 C 85 % 1000,3 hPa 0,0 l/m 0 min 0 min 0 W/m 27,2 km/h (4 Bft)
12.12.2014 06:52 8,3 C 6,1 C 85 % 1000,4 hPa 0,0 l/m 0 min 0 min 0 W/m 41,8 km/h (6 Bft)
12.12.2014 06:54 8,3 C 6,1 C 85 % 1000,4 hPa 0,0 l/m 0 min 0 min 0 W/m 37,7 km/h (5 Bft)
12.12.2014 06:56 8,3 C 6,1 C 85 % 1000,4 hPa 0,0 l/m 0 min 0 min 0 W/m 41,8 km/h (6 Bft)
12.12.2014 06:58 8,3 C 6,1 C 85 % 1000,4 hPa 0,0 l/m 0 min 0 min 0 W/m 25,1 km/h (4 Bft)
12.12.2014 07:00 8,3 C 6,1 C 84 % 1000,5 hPa 0,0 l/m 0 min 0 min 0 W/m 43,9 km/h (6 Bft)
12.12.2014 07:02 8,3 C 6,1 C 85 % 1000,3 hPa 0,0 l/m 0 min 0 min 0 W/m 37,7 km/h (5 Bft)
12.12.2014 07:04 8,4 C 6,1 C 85 % 1000,3 hPa 0,0 l/m 0 min 0 min 0 W/m 46,0 km/h (6 Bft)
12.12.2014 07:06 8,4 C 6,1 C 84 % 1000,3 hPa 0,0 l/m 0 min 0 min 0 W/m 41,8 km/h (6 Bft)
12.12.2014 07:08 8,4 C 6,1 C 84 % 1000,2 hPa 0,0 l/m 0 min 0 min 0 W/m 33,5 km/h (5 Bft)
12.12.2014 07:10 8,4 C 6,1 C 84 % 1000,2 hPa 0,0 l/m 0 min 0 min 0 W/m 46,0 km/h (6 Bft)
12.12.2014 07:12 8,4 C 6,1 C 84 % 1000,1 hPa 0,0 l/m 0 min 0 min 0 W/m 35,6 km/h (5 Bft)
12.12.2014 07:14 8,5 C 6,7 C 84 % 1000,0 hPa 0,0 l/m 0 min 0 min 0 W/m 37,7 km/h (5 Bft)
12.12.2014 07:15 8,5 C 6,1 C 84 % 1000,0 hPa 0,0 l/m 0 min 0 min 0 W/m 37,7 km/h (5 Bft)
12.12.2014 07:20 8,6 C 6,1 C 84 % 999,8 hPa 0,0 l/m 0 min 0 min 0 W/m 46,0 km/h (6 Bft)
12.12.2014 07:25 8,6 C 6,7 C 84 % 999,7 hPa 0,0 l/m 0 min 0 min 0 W/m 62,8 km/h (8 Bft)
12.12.2014 07:30 8,6 C 6,7 C 84 % 999,7 hPa 0,0 l/m 0 min 0 min 0 W/m 50,2 km/h (7 Bft)
12.12.2014 07:36 8,6 C 6,1 C 84 % 999,6 hPa 0,0 l/m 0 min 0 min 0 W/m 37,7 km/h (5 Bft)
12.12.2014 07:38 8,6 C 6,7 C 84 % 999,5 hPa 0,0 l/m 0 min 0 min 0 W/m 58,6 km/h (7 Bft)
12.12.2014 07:40 8,6 C 6,7 C 85 % 999,6 hPa 0,0 l/m 0 min 0 min 0 W/m 41,8 km/h (6 Bft)
12.12.2014 07:42 8,6 C 6,7 C 85 % 999,5 hPa 0,0 l/m 0 min 0 min 0 W/m 46,0 km/h (6 Bft)
12.12.2014 07:44 8,6 C 6,7 C 85 % 999,5 hPa 0,0 l/m 0 min 0 min 0 W/m 37,7 km/h (5 Bft)
12.12.2014 07:46 8,6 C 6,7 C 85 % 999,7 hPa 0,0 l/m 0 min 0 min 0 W/m 54,4 km/h (7 Bft)
12.12.2014 07:48 8,6 C 6,7 C 85 % 999,4 hPa 0,0 l/m 0 min 0 min 0 W/m 43,9 km/h (6 Bft)
12.12.2014 07:50 8,6 C 6,7 C 85 % 999,3 hPa 0,0 l/m 0 min 0 min 0 W/m 41,8 km/h (6 Bft)
12.12.2014 07:52 8,6 C 6,7 C 85 % 999,2 hPa 0,0 l/m 0 min 0 min 0 W/m 46,0 km/h (6 Bft)
12.12.2014 07:54 8,6 C 6,7 C 85 % 999,2 hPa 0,0 l/m 0 min 0 min 0 W/m 60,7 km/h (7 Bft)
12.12.2014 07:56 8,6 C 6,7 C 85 % 999,1 hPa 0,0 l/m 0 min 0 min 0 W/m 46,0 km/h (6 Bft)
12.12.2014 07:58 8,6 C 6,7 C 85 % 999,1 hPa 0,0 l/m 0 min 0 min 0 W/m 31,4 km/h (5 Bft)
12.12.2014 08:00 8,6 C 6,7 C 85 % 998,9 hPa 0,0 l/m 0 min 0 min 0 W/m 58,6 km/h (7 Bft)
12.12.2014 08:02 8,6 C 6,7 C 85 % 999,0 hPa 0,0 l/m 0 min 0 min 0 W/m 43,9 km/h (6 Bft)
12.12.2014 08:04 8,6 C 6,7 C 85 % 999,0 hPa 0,0 l/m 0 min 0 min 0 W/m 46,0 km/h (6 Bft)
12.12.2014 08:06 8,6 C 6,7 C 85 % 999,1 hPa 0,0 l/m 0 min 0 min 0 W/m 37,7 km/h (5 Bft)
12.12.2014 08:08 8,6 C 6,7 C 85 % 999,1 hPa 0,0 l/m 0 min 0 min 0 W/m 48,1 km/h (6 Bft)
12.12.2014 08:10 8,6 C 6,7 C 85 % 999,1 hPa 0,0 l/m 0 min 0 min 0 W/m 46,0 km/h (6 Bft)
12.12.2014 08:12 8,7 C 6,7 C 85 % 999,0 hPa 0,0 l/m 0 min 0 min 0 W/m 37,7 km/h (5 Bft)
12.12.2014 08:14 8,7 C 6,7 C 85 % 999,0 hPa 0,0 l/m 0 min 0 min 0 W/m 52,3 km/h (7 Bft)
12.12.2014 08:16 8,7 C 6,7 C 85 % 998,9 hPa 0,0 l/m 0 min 0 min 0 W/m 56,5 km/h (7 Bft)
12.12.2014 08:18 8,7 C 6,7 C 85 % 998,8 hPa 0,0 l/m 0 min 0 min 0 W/m 60,7 km/h (7 Bft)
12.12.2014 08:20 8,7 C 6,7 C 85 % 998,8 hPa 0,0 l/m 0 min 0 min 0 W/m 39,7 km/h (6 Bft)
12.12.2014 08:22 8,7 C 6,7 C 85 % 998,8 hPa 0,0 l/m 0 min 0 min 0 W/m 46,0 km/h (6 Bft)
12.12.2014 08:24 8,7 C 6,7 C 85 % 998,8 hPa 0,0 l/m 0 min 0 min 0 W/m 56,5 km/h (7 Bft)
12.12.2014 08:26 8,7 C 6,7 C 85 % 998,8 hPa 0,0 l/m 0 min 0 min 0 W/m 54,4 km/h (7 Bft)
12.12.2014 08:28 8,7 C 6,7 C 85 % 998,7 hPa 0,0 l/m 0 min 0 min 0 W/m 43,9 km/h (6 Bft)
12.12.2014 08:30 8,7 C 6,7 C 85 % 998,7 hPa 0,0 l/m 0 min 0 min 0 W/m 43,9 km/h (6 Bft)
12.12.2014 08:32 8,7 C 7,2 C 84 % 998,7 hPa 0,0 l/m 0 min 0 min 0 W/m 41,8 km/h (6 Bft)
12.12.2014 08:34 8,8 C 7,2 C 84 % 998,7 hPa 0,0 l/m 0 min 0 min 0 W/m 62,8 km/h (8 Bft)
12.12.2014 08:36 8,8 C 7,2 C 84 % 998,7 hPa 0,0 l/m 0 min 0 min 0 W/m 52,3 km/h (7 Bft)
12.12.2014 08:38 8,8 C 7,2 C 84 % 998,8 hPa 0,0 l/m 0 min 0 min 0 W/m 41,8 km/h (6 Bft)
12.12.2014 08:40 8,8 C 7,2 C 84 % 998,7 hPa 0,0 l/m 0 min 0 min 0 W/m 35,6 km/h (5 Bft)
12.12.2014 08:42 8,8 C 7,2 C 84 % 998,7 hPa 0,0 l/m 0 min 0 min 0 W/m 48,1 km/h (6 Bft)
12.12.2014 08:44 8,8 C 7,2 C 84 % 998,7 hPa 0,0 l/m 0 min 0 min 1 W/m 31,4 km/h (5 Bft)
12.12.2014 08:46 8,8 C 7,2 C 84 % 998,8 hPa 0,0 l/m 0 min 0 min 5 W/m 39,7 km/h (6 Bft)
12.12.2014 08:48 8,9 C 7,2 C 84 % 998,6 hPa 0,0 l/m 0 min 0 min 5 W/m 54,4 km/h (7 Bft)
12.12.2014 08:50 8,9 C 7,2 C 84 % 998,6 hPa 0,0 l/m 0 min 0 min 5 W/m 46,0 km/h (6 Bft)
12.12.2014 08:52 8,9 C 7,2 C 84 % 998,6 hPa 0,0 l/m 0 min 0 min 3 W/m 62,8 km/h (8 Bft)
12.12.2014 08:54 8,9 C 7,2 C 83 % 998,6 hPa 0,0 l/m 0 min 0 min 5 W/m 41,8 km/h (6 Bft)
12.12.2014 08:56 8,9 C 7,2 C 83 % 998,6 hPa 0,0 l/m 0 min 0 min 5 W/m 43,9 km/h (6 Bft)
12.12.2014 08:58 9,0 C 7,2 C 83 % 998,4 hPa 0,0 l/m 0 min 0 min 6 W/m 39,7 km/h (6 Bft)
12.12.2014 09:00 9,0 C 7,2 C 83 % 998,4 hPa 0,0 l/m 0 min 0 min 7 W/m 62,8 km/h (8 Bft)
12.12.2014 09:02 9,0 C 7,8 C 83 % 998,4 hPa 0,0 l/m 0 min 0 min 11 W/m 41,8 km/h (6 Bft)
12.12.2014 09:04 9,1 C 7,8 C 83 % 998,3 hPa 0,0 l/m 0 min 0 min 12 W/m 39,7 km/h (6 Bft)
12.12.2014 09:06 9,1 C 7,8 C 83 % 998,2 hPa 0,0 l/m 0 min 0 min 10 W/m 35,6 km/h (5 Bft)
12.12.2014 09:08 9,1 C 7,8 C 83 % 998,4 hPa 0,0 l/m 0 min 0 min 10 W/m 56,5 km/h (7 Bft)
12.12.2014 09:10 9,1 C 7,2 C 83 % 998,2 hPa 0,0 l/m 0 min 0 min 10 W/m 41,8 km/h (6 Bft)
12.12.2014 09:12 9,1 C 7,2 C 83 % 998,3 hPa 0,0 l/m 0 min 0 min 9 W/m 37,7 km/h (5 Bft)
12.12.2014 09:14 9,1 C 7,2 C 83 % 998,3 hPa 0,0 l/m 0 min 0 min 16 W/m 48,1 km/h (6 Bft)
12.12.2014 09:16 9,1 C 7,2 C 83 % 998,2 hPa 0,0 l/m 0 min 0 min 19 W/m 48,1 km/h (6 Bft)
12.12.2014 09:18 9,2 C 7,2 C 83 % 998,2 hPa 0,0 l/m 0 min 0 min 15 W/m 54,4 km/h (7 Bft)
12.12.2014 09:20 9,1 C 7,2 C 83 % 998,2 hPa 0,0 l/m 0 min 2 min 11 W/m 35,6 km/h (5 Bft)
12.12.2014 09:22 9,1 C 7,2 C 83 % 998,1 hPa 0,0 l/m 0 min 0 min 12 W/m 46,0 km/h (6 Bft)
12.12.2014 09:24 9,1 C 7,2 C 84 % 998,1 hPa 0,0 l/m 0 min 2 min 17 W/m 46,0 km/h (6 Bft)
12.12.2014 09:26 9,1 C 7,2 C 84 % 998,0 hPa 0,0 l/m 0 min 2 min 20 W/m 71,1 km/h (8 Bft)
12.12.2014 09:28 9,1 C 7,2 C 84 % 998,2 hPa 0,0 l/m 0 min 2 min 21 W/m 52,3 km/h (7 Bft)
12.12.2014 09:30 9,1 C 7,2 C 84 % 998,1 hPa 0,0 l/m 0 min 2 min 26 W/m 54,4 km/h (7 Bft)
12.12.2014 09:32 9,1 C 6,7 C 84 % 998,2 hPa 0,0 l/m 0 min 2 min 26 W/m 43,9 km/h (6 Bft)
12.12.2014 09:34 9,1 C 6,7 C 84 % 998,0 hPa 0,0 l/m 0 min 2 min 27 W/m 48,1 km/h (6 Bft)
12.12.2014 09:36 9,1 C 6,7 C 85 % 997,7 hPa 0,0 l/m 0 min 2 min 26 W/m 52,3 km/h (7 Bft)
12.12.2014 09:38 9,0 C 6,7 C 85 % 997,7 hPa 0,0 l/m 0 min 2 min 30 W/m 41,8 km/h (6 Bft)
12.12.2014 09:40 9,0 C 6,7 C 85 % 997,8 hPa 0,0 l/m 0 min 2 min 31 W/m 71,1 km/h (8 Bft)
12.12.2014 09:42 8,9 C 6,7 C 86 % 997,8 hPa 0,0 l/m 0 min 2 min 38 W/m 48,1 km/h (6 Bft)
12.12.2014 09:44 8,9 C 6,7 C 86 % 998,0 hPa 0,2 l/m 0 min 2 min 42 W/m 54,4 km/h (7 Bft)
12.12.2014 09:46 8,9 C 6,7 C 86 % 997,9 hPa 0,0 l/m 0 min 2 min 48 W/m 46,0 km/h (6 Bft)
12.12.2014 09:48 8,9 C 6,7 C 86 % 997,7 hPa 0,0 l/m 0 min 2 min 54 W/m 58,6 km/h (7 Bft)
12.12.2014 09:50 8,9 C 6,7 C 86 % 997,6 hPa 0,0 l/m 0 min 0 min 58 W/m 64,9 km/h (8 Bft)
12.12.2014 09:52 8,9 C 6,7 C 86 % 997,7 hPa 0,0 l/m 0 min 0 min 58 W/m 41,8 km/h (6 Bft)
12.12.2014 09:54 8,9 C 6,7 C 86 % 997,7 hPa 0,0 l/m 0 min 2 min 62 W/m 43,9 km/h (6 Bft)
12.12.2014 09:56 8,9 C 6,7 C 86 % 997,7 hPa 0,0 l/m 0 min 0 min 60 W/m 48,1 km/h (6 Bft)
12.12.2014 09:58 8,9 C 6,7 C 86 % 997,7 hPa 0,0 l/m 0 min 0 min 67 W/m 50,2 km/h (7 Bft)
12.12.2014 10:00 8,9 C 6,7 C 86 % 997,7 hPa 0,0 l/m 0 min 0 min 70 W/m 46,0 km/h (6 Bft)
12.12.2014 10:02 8,9 C 6,7 C 86 % 997,8 hPa 0,0 l/m 0 min 0 min 66 W/m 50,2 km/h (7 Bft)
12.12.2014 10:04 8,9 C 6,7 C 86 % 997,6 hPa 0,0 l/m 0 min 0 min 63 W/m 37,7 km/h (5 Bft)
12.12.2014 10:06 8,9 C 6,7 C 86 % 997,7 hPa 0,0 l/m 0 min 0 min 60 W/m 56,5 km/h (7 Bft)
12.12.2014 10:08 8,9 C 7,2 C 86 % 997,5 hPa 0,0 l/m 0 min 0 min 62 W/m 43,9 km/h (6 Bft)
12.12.2014 10:10 8,9 C 7,2 C 86 % 997,6 hPa 0,0 l/m 0 min 0 min 61 W/m 46,0 km/h (6 Bft)
12.12.2014 10:12 8,9 C 6,7 C 86 % 997,6 hPa 0,0 l/m 0 min 2 min 58 W/m 43,9 km/h (6 Bft)
12.12.2014 10:14 8,9 C 6,7 C 86 % 997,5 hPa 0,0 l/m 0 min 2 min 57 W/m 52,3 km/h (7 Bft)
12.12.2014 10:16 8,9 C 7,2 C 86 % 997,5 hPa 0,0 l/m 0 min 0 min 56 W/m 41,8 km/h (6 Bft)
12.12.2014 10:18 8,9 C 7,2 C 86 % 997,6 hPa 0,0 l/m 0 min 2 min 53 W/m 48,1 km/h (6 Bft)
12.12.2014 10:20 8,9 C 7,2 C 86 % 997,5 hPa 0,0 l/m 0 min 0 min 50 W/m 35,6 km/h (5 Bft)
12.12.2014 10:22 8,9 C 6,7 C 86 % 997,7 hPa 0,0 l/m 0 min 0 min 48 W/m 58,6 km/h (7 Bft)
12.12.2014 10:24 8,9 C 6,7 C 87 % 997,6 hPa 0,0 l/m 0 min 2 min 50 W/m 50,2 km/h (7 Bft)
12.12.2014 10:26 8,9 C 6,7 C 87 % 997,6 hPa 0,0 l/m 0 min 2 min 50 W/m 46,0 km/h (6 Bft)
12.12.2014 10:28 8,9 C 6,7 C 87 % 997,6 hPa 0,0 l/m 0 min 2 min 43 W/m 39,7 km/h (6 Bft)
12.12.2014 10:30 8,9 C 6,7 C 87 % 997,7 hPa 0,0 l/m 0 min 2 min 33 W/m 56,5 km/h (7 Bft)
12.12.2014 10:32 8,9 C 6,7 C 87 % 997,6 hPa 0,0 l/m 0 min 2 min 35 W/m 50,2 km/h (7 Bft)
12.12.2014 10:34 8,9 C 6,7 C 87 % 997,8 hPa 0,0 l/m 0 min 2 min 31 W/m 62,8 km/h (8 Bft)
12.12.2014 10:36 8,8 C 6,7 C 87 % 997,7 hPa 0,0 l/m 0 min 2 min 34 W/m 43,9 km/h (6 Bft)
12.12.2014 10:38 8,8 C 6,7 C 88 % 997,6 hPa 0,0 l/m 0 min 2 min 43 W/m 39,7 km/h (6 Bft)
12.12.2014 10:40 8,8 C 6,7 C 88 % 997,6 hPa 0,2 l/m 0 min 2 min 41 W/m 46,0 km/h (6 Bft)
12.12.2014 10:42 8,7 C 6,1 C 88 % 997,7 hPa 0,0 l/m 0 min 2 min 36 W/m 50,2 km/h (7 Bft)
12.12.2014 10:44 8,7 C 6,1 C 88 % 997,7 hPa 0,0 l/m 0 min 2 min 42 W/m 52,3 km/h (7 Bft)
12.12.2014 10:46 8,7 C 6,1 C 88 % 997,6 hPa 0,2 l/m 0 min 2 min 43 W/m 50,2 km/h (7 Bft)
12.12.2014 10:48 8,7 C 6,1 C 89 % 997,6 hPa 0,0 l/m 0 min 2 min 45 W/m 58,6 km/h (7 Bft)
12.12.2014 10:50 8,6 C 6,1 C 89 % 997,6 hPa 0,0 l/m 0 min 2 min 42 W/m 64,9 km/h (8 Bft)
12.12.2014 10:52 8,6 C 6,1 C 89 % 997,4 hPa 0,0 l/m 0 min 2 min 44 W/m 50,2 km/h (7 Bft)
12.12.2014 10:54 8,6 C 6,1 C 89 % 997,6 hPa 0,0 l/m 0 min 2 min 42 W/m 58,6 km/h (7 Bft)
12.12.2014 10:56 8,6 C 6,1 C 89 % 997,5 hPa 0,0 l/m 0 min 2 min 40 W/m 50,2 km/h (7 Bft)
12.12.2014 10:58 8,5 C 6,1 C 89 % 997,5 hPa 0,2 l/m 0 min 2 min 45 W/m 56,5 km/h (7 Bft)
12.12.2014 11:00 8,5 C 6,1 C 89 % 997,4 hPa 0,0 l/m 0 min 2 min 47 W/m 64,9 km/h (8 Bft)
12.12.2014 11:02 8,5 C 6,1 C 89 % 997,5 hPa 0,0 l/m 0 min 2 min 47 W/m 52,3 km/h (7 Bft)
12.12.2014 11:04 8,5 C 6,1 C 90 % 997,4 hPa 0,0 l/m 0 min 2 min 51 W/m 46,0 km/h (6 Bft)
12.12.2014 11:06 8,4 C 6,1 C 90 % 997,4 hPa 0,0 l/m 0 min 2 min 53 W/m 56,5 km/h (7 Bft)
12.12.2014 11:08 8,4 C 6,1 C 90 % 997,5 hPa 0,0 l/m 0 min 2 min 55 W/m 46,0 km/h (6 Bft)
12.12.2014 11:10 8,4 C 6,1 C 90 % 997,3 hPa 0,0 l/m 0 min 2 min 56 W/m 54,4 km/h (7 Bft)
12.12.2014 11:12 8,4 C 6,7 C 90 % 997,2 hPa 0,0 l/m 0 min 2 min 61 W/m 33,5 km/h (5 Bft)
12.12.2014 11:14 8,4 C 6,7 C 90 % 997,2 hPa 0,0 l/m 0 min 2 min 68 W/m 41,8 km/h (6 Bft)
12.12.2014 11:16 8,4 C 6,7 C 90 % 997,0 hPa 0,0 l/m 0 min 2 min 74 W/m 48,1 km/h (6 Bft)
12.12.2014 11:18 8,4 C 6,7 C 90 % 997,0 hPa 0,2 l/m 0 min 2 min 81 W/m 43,9 km/h (6 Bft)
12.12.2014 11:20 8,4 C 6,7 C 91 % 997,0 hPa 0,0 l/m 0 min 2 min 83 W/m 50,2 km/h (7 Bft)
12.12.2014 11:22 8,4 C 6,7 C 90 % 997,0 hPa 0,0 l/m 0 min 2 min 89 W/m 31,4 km/h (5 Bft)
12.12.2014 11:24 8,4 C 6,7 C 91 % 996,7 hPa 0,0 l/m 0 min 0 min 105 W/m 35,6 km/h (5 Bft)
12.12.2014 11:26 8,4 C 6,7 C 91 % 997,0 hPa 0,0 l/m 0 min 2 min 100 W/m 41,8 km/h (6 Bft)
12.12.2014 11:28 8,4 C 6,7 C 91 % 996,7 hPa 0,0 l/m 0 min 0 min 95 W/m 41,8 km/h (6 Bft)
12.12.2014 11:30 8,4 C 6,7 C 91 % 996,7 hPa 0,0 l/m 0 min 0 min 70 W/m 43,9 km/h (6 Bft)
12.12.2014 11:32 8,4 C 6,7 C 91 % 996,6 hPa 0,0 l/m 0 min 0 min 70 W/m 46,0 km/h (6 Bft)
12.12.2014 11:34 8,4 C 6,7 C 91 % 996,5 hPa 0,0 l/m 0 min 0 min 85 W/m 48,1 km/h (6 Bft)
12.12.2014 11:36 8,4 C 6,7 C 91 % 996,7 hPa 0,0 l/m 0 min 2 min 80 W/m 66,9 km/h (8 Bft)
12.12.2014 11:38 8,5 C 6,7 C 91 % 996,7 hPa 0,0 l/m 0 min 0 min 77 W/m 48,1 km/h (6 Bft)
12.12.2014 11:40 8,5 C 6,7 C 91 % 996,3 hPa 0,0 l/m 0 min 0 min 79 W/m 62,8 km/h (8 Bft)
12.12.2014 11:42 8,6 C 6,7 C 91 % 996,5 hPa 0,0 l/m 0 min 0 min 64 W/m 37,7 km/h (5 Bft)
12.12.2014 11:44 8,6 C 6,7 C 90 % 996,3 hPa 0,0 l/m 0 min 0 min 52 W/m 56,5 km/h (7 Bft)
12.12.2014 11:46 8,6 C 6,7 C 90 % 996,4 hPa 0,0 l/m 0 min 0 min 46 W/m 46,0 km/h (6 Bft)
12.12.2014 11:48 8,6 C 6,7 C 90 % 996,6 hPa 0,0 l/m 0 min 0 min 71 W/m 60,7 km/h (7 Bft)
12.12.2014 11:50 8,6 C 6,7 C 90 % 996,2 hPa 0,0 l/m 0 min 0 min 80 W/m 37,7 km/h (5 Bft)
12.12.2014 11:52 8,7 C 6,7 C 90 % 996,3 hPa 0,0 l/m 0 min 0 min 59 W/m 46,0 km/h (6 Bft)
12.12.2014 11:54 8,7 C 6,7 C 90 % 996,4 hPa 0,0 l/m 0 min 0 min 54 W/m 43,9 km/h (6 Bft)
12.12.2014 11:56 8,7 C 6,7 C 90 % 996,5 hPa 0,0 l/m 0 min 0 min 90 W/m 39,7 km/h (6 Bft)
12.12.2014 11:58 8,7 C 6,7 C 90 % 996,3 hPa 0,0 l/m 0 min 0 min 85 W/m 33,5 km/h (5 Bft)
12.12.2014 12:00 8,8 C 6,7 C 89 % 996,3 hPa 0,0 l/m 0 min 0 min 54 W/m 46,0 km/h (6 Bft)
12.12.2014 12:02 8,8 C 6,7 C 89 % 996,3 hPa 0,0 l/m 0 min 0 min 57 W/m 50,2 km/h (7 Bft)
12.12.2014 12:06 8,9 C 7,2 C 89 % 996,1 hPa 0,0 l/m 0 min 0 min 91 W/m 46,0 km/h (6 Bft)
12.12.2014 12:08 8,9 C 7,2 C 89 % 996,0 hPa 0,0 l/m 0 min 0 min 75 W/m 56,5 km/h (7 Bft)
12.12.2014 12:10 9,0 C 7,2 C 88 % 996,2 hPa 0,0 l/m 0 min 0 min 60 W/m 58,6 km/h (7 Bft)
12.12.2014 12:12 9,1 C 7,2 C 88 % 996,2 hPa 0,0 l/m 0 min 0 min 79 W/m 56,5 km/h (7 Bft)
12.12.2014 12:14 9,2 C 7,2 C 88 % 996,2 hPa 0,0 l/m 0 min 0 min 119 W/m 48,1 km/h (6 Bft)
12.12.2014 12:16 9,2 C 7,2 C 88 % 996,0 hPa 0,0 l/m 2 min 0 min 139 W/m 50,2 km/h (7 Bft)
12.12.2014 12:18 9,2 C 7,2 C 88 % 996,3 hPa 0,0 l/m 0 min 0 min 114 W/m 37,7 km/h (5 Bft)
12.12.2014 12:20 9,3 C 7,2 C 88 % 996,4 hPa 0,0 l/m 0 min 0 min 90 W/m 52,3 km/h (7 Bft)
12.12.2014 12:22 9,3 C 7,2 C 88 % 996,3 hPa 0,0 l/m 0 min 0 min 92 W/m 56,5 km/h (7 Bft)
12.12.2014 12:24 9,4 C 7,2 C 88 % 996,0 hPa 0,0 l/m 0 min 0 min 100 W/m 56,5 km/h (7 Bft)
12.12.2014 12:26 9,4 C 7,2 C 87 % 996,1 hPa 0,0 l/m 0 min 0 min 90 W/m 50,2 km/h (7 Bft)
12.12.2014 12:28 9,4 C 7,2 C 87 % 995,9 hPa 0,0 l/m 0 min 0 min 86 W/m 46,0 km/h (6 Bft)
12.12.2014 12:30 9,5 C 7,2 C 87 % 995,9 hPa 0,0 l/m 0 min 0 min 79 W/m 54,4 km/h (7 Bft)
12.12.2014 12:32 9,5 C 7,2 C 87 % 995,8 hPa 0,0 l/m 0 min 0 min 73 W/m 58,6 km/h (7 Bft)
12.12.2014 12:34 9,5 C 7,2 C 87 % 995,8 hPa 0,0 l/m 0 min 0 min 84 W/m 54,4 km/h (7 Bft)
12.12.2014 12:36 9,5 C 7,8 C 87 % 995,8 hPa 0,0 l/m 0 min 0 min 91 W/m 56,5 km/h (7 Bft)
12.12.2014 12:38 9,5 C 7,8 C 87 % 995,9 hPa 0,0 l/m 0 min 0 min 95 W/m 52,3 km/h (7 Bft)
12.12.2014 12:40 9,6 C 7,8 C 87 % 995,9 hPa 0,0 l/m 0 min 0 min 85 W/m 48,1 km/h (6 Bft)
12.12.2014 12:42 9,6 C 7,8 C 87 % 995,8 hPa 0,0 l/m 0 min 0 min 71 W/m 41,8 km/h (6 Bft)
12.12.2014 12:44 9,6 C 7,2 C 87 % 995,9 hPa 0,0 l/m 0 min 0 min 57 W/m 56,5 km/h (7 Bft)
12.12.2014 12:46 9,6 C 7,2 C 87 % 995,8 hPa 0,0 l/m 0 min 0 min 55 W/m 75,3 km/h (9 Bft)
12.12.2014 12:48 9,6 C 7,2 C 87 % 995,8 hPa 0,0 l/m 0 min 0 min 57 W/m 48,1 km/h (6 Bft)
12.12.2014 12:50 9,5 C 7,2 C 87 % 995,8 hPa 0,0 l/m 0 min 0 min 59 W/m 60,7 km/h (7 Bft)
12.12.2014 12:52 9,5 C 7,8 C 87 % 995,8 hPa 0,0 l/m 0 min 0 min 71 W/m 62,8 km/h (8 Bft)
12.12.2014 12:54 9,5 C 7,8 C 87 % 995,7 hPa 0,0 l/m 0 min 0 min 81 W/m 46,0 km/h (6 Bft)
12.12.2014 12:56 9,5 C 7,8 C 87 % 995,7 hPa 0,0 l/m 0 min 0 min 77 W/m 50,2 km/h (7 Bft)
12.12.2014 12:58 9,5 C 7,8 C 87 % 995,7 hPa 0,0 l/m 0 min 0 min 70 W/m 43,9 km/h (6 Bft)
12.12.2014 13:00 9,5 C 7,8 C 88 % 995,8 hPa 0,0 l/m 0 min 0 min 78 W/m 50,2 km/h (7 Bft)
12.12.2014 13:02 9,5 C 7,8 C 88 % 995,7 hPa 0,0 l/m 0 min 0 min 74 W/m 52,3 km/h (7 Bft)
12.12.2014 13:04 9,5 C 7,8 C 88 % 995,7 hPa 0,0 l/m 0 min 0 min 92 W/m 54,4 km/h (7 Bft)
12.12.2014 13:06 9,5 C 7,8 C 88 % 995,7 hPa 0,0 l/m 0 min 0 min 99 W/m 60,7 km/h (7 Bft)
12.12.2014 13:08 9,6 C 7,8 C 88 % 995,6 hPa 0,0 l/m 0 min 0 min 92 W/m 58,6 km/h (7 Bft)
12.12.2014 13:10 9,6 C 7,8 C 88 % 995,7 hPa 0,0 l/m 0 min 0 min 96 W/m 64,9 km/h (8 Bft)
12.12.2014 13:12 9,6 C 7,8 C 88 % 995,7 hPa 0,0 l/m 0 min 2 min 95 W/m 31,4 km/h (5 Bft)
12.12.2014 13:14 9,6 C 7,8 C 88 % 995,7 hPa 0,0 l/m 0 min 2 min 88 W/m 66,9 km/h (8 Bft)
12.12.2014 13:16 9,5 C 7,8 C 88 % 995,7 hPa 0,0 l/m 0 min 0 min 75 W/m 56,5 km/h (7 Bft)
12.12.2014 13:18 9,5 C 7,8 C 89 % 995,7 hPa 0,0 l/m 0 min 0 min 75 W/m 60,7 km/h (7 Bft)
12.12.2014 13:20 9,5 C 7,8 C 89 % 995,6 hPa 0,0 l/m 0 min 0 min 69 W/m 43,9 km/h (6 Bft)
12.12.2014 13:22 9,5 C 7,8 C 89 % 995,6 hPa 0,0 l/m 0 min 0 min 74 W/m 39,7 km/h (6 Bft)
12.12.2014 13:24 9,5 C 7,8 C 89 % 995,6 hPa 0,0 l/m 0 min 2 min 61 W/m 46,0 km/h (6 Bft)
12.12.2014 13:26 9,4 C 7,8 C 89 % 995,8 hPa 0,0 l/m 0 min 0 min 56 W/m 50,2 km/h (7 Bft)
12.12.2014 13:28 9,4 C 7,8 C 89 % 995,7 hPa 0,0 l/m 0 min 0 min 55 W/m 62,8 km/h (8 Bft)
12.12.2014 13:30 9,4 C 7,8 C 89 % 995,6 hPa 0,0 l/m 0 min 0 min 56 W/m 41,8 km/h (6 Bft)
12.12.2014 13:32 9,4 C 7,8 C 89 % 995,7 hPa 0,0 l/m 0 min 2 min 53 W/m 58,6 km/h (7 Bft)
12.12.2014 13:34 9,4 C 7,8 C 89 % 995,6 hPa 0,0 l/m 0 min 2 min 55 W/m 43,9 km/h (6 Bft)
12.12.2014 13:36 9,4 C 7,2 C 89 % 995,7 hPa 0,0 l/m 0 min 2 min 55 W/m 46,0 km/h (6 Bft)
12.12.2014 13:38 9,4 C 7,2 C 90 % 995,6 hPa 0,0 l/m 0 min 2 min 61 W/m 54,4 km/h (7 Bft)
12.12.2014 13:40 9,4 C 7,2 C 90 % 995,5 hPa 0,0 l/m 0 min 2 min 55 W/m 41,8 km/h (6 Bft)
12.12.2014 13:42 9,4 C 7,2 C 90 % 995,5 hPa 0,0 l/m 0 min 0 min 60 W/m 41,8 km/h (6 Bft)
12.12.2014 13:44 9,4 C 7,8 C 90 % 995,6 hPa 0,0 l/m 0 min 0 min 67 W/m 75,3 km/h (9 Bft)
12.12.2014 13:46 9,4 C 7,8 C 90 % 995,7 hPa 0,0 l/m 0 min 0 min 62 W/m 48,1 km/h (6 Bft)
12.12.2014 13:48 9,4 C 7,8 C 90 % 995,6 hPa 0,0 l/m 0 min 0 min 69 W/m 39,7 km/h (6 Bft)
12.12.2014 13:50 9,4 C 7,8 C 90 % 995,8 hPa 0,0 l/m 0 min 0 min 67 W/m 52,3 km/h (7 Bft)
12.12.2014 13:52 9,4 C 7,8 C 90 % 995,6 hPa 0,0 l/m 0 min 0 min 69 W/m 48,1 km/h (6 Bft)
12.12.2014 13:54 9,4 C 7,8 C 90 % 995,5 hPa 0,0 l/m 0 min 0 min 70 W/m 52,3 km/h (7 Bft)
12.12.2014 13:56 9,4 C 7,8 C 90 % 995,6 hPa 0,0 l/m 0 min 0 min 74 W/m 48,1 km/h (6 Bft)
12.12.2014 13:58 9,5 C 7,8 C 90 % 995,6 hPa 0,0 l/m 0 min 0 min 58 W/m 46,0 km/h (6 Bft)
12.12.2014 14:00 9,5 C 7,8 C 90 % 995,6 hPa 0,0 l/m 0 min 0 min 59 W/m 39,7 km/h (6 Bft)
12.12.2014 14:02 9,5 C 7,8 C 90 % 995,6 hPa 0,0 l/m 0 min 0 min 63 W/m 52,3 km/h (7 Bft)
12.12.2014 14:04 9,5 C 7,8 C 90 % 995,6 hPa 0,0 l/m 0 min 0 min 51 W/m 48,1 km/h (6 Bft)
12.12.2014 14:06 9,5 C 7,8 C 90 % 995,6 hPa 0,0 l/m 0 min 2 min 47 W/m 48,1 km/h (6 Bft)
12.12.2014 14:08 9,5 C 7,8 C 90 % 995,6 hPa 0,0 l/m 0 min 0 min 58 W/m 46,0 km/h (6 Bft)
12.12.2014 14:10 9,5 C 7,8 C 90 % 995,5 hPa 0,0 l/m 0 min 0 min 60 W/m 39,7 km/h (6 Bft)
12.12.2014 14:12 9,4 C 7,8 C 90 % 995,4 hPa 0,0 l/m 0 min 0 min 60 W/m 43,9 km/h (6 Bft)
12.12.2014 14:14 9,4 C 7,8 C 91 % 995,4 hPa 0,0 l/m 0 min 0 min 61 W/m 41,8 km/h (6 Bft)
12.12.2014 14:16 9,4 C 7,8 C 91 % 995,4 hPa 0,0 l/m 0 min 0 min 61 W/m 54,4 km/h (7 Bft)
12.12.2014 14:18 9,4 C 7,8 C 91 % 995,4 hPa 0,0 l/m 0 min 0 min 56 W/m 52,3 km/h (7 Bft)
12.12.2014 14:20 9,4 C 7,8 C 91 % 995,5 hPa 0,0 l/m 0 min 0 min 58 W/m 48,1 km/h (6 Bft)
12.12.2014 14:22 9,4 C 7,8 C 91 % 995,4 hPa 0,0 l/m 0 min 0 min 59 W/m 48,1 km/h (6 Bft)
12.12.2014 14:24 9,3 C 7,8 C 91 % 995,4 hPa 0,0 l/m 0 min 0 min 63 W/m 41,8 km/h (6 Bft)
12.12.2014 14:26 9,3 C 7,8 C 91 % 995,3 hPa 0,0 l/m 0 min 0 min 70 W/m 50,2 km/h (7 Bft)
12.12.2014 14:28 9,3 C 7,8 C 92 % 995,4 hPa 0,0 l/m 0 min 0 min 60 W/m 50,2 km/h (7 Bft)
12.12.2014 14:30 9,3 C 7,8 C 92 % 995,4 hPa 0,0 l/m 0 min 0 min 48 W/m 46,0 km/h (6 Bft)
12.12.2014 14:32 9,3 C 7,8 C 92 % 995,4 hPa 0,0 l/m 0 min 0 min 50 W/m 39,7 km/h (6 Bft)
12.12.2014 14:34 9,3 C 7,8 C 92 % 995,4 hPa 0,0 l/m 0 min 0 min 52 W/m 46,0 km/h (6 Bft)
12.12.2014 14:36 9,4 C 7,8 C 92 % 995,4 hPa 0,0 l/m 0 min 0 min 55 W/m 29,3 km/h (5 Bft)
12.12.2014 14:38 9,4 C 7,8 C 92 % 995,3 hPa 0,0 l/m 0 min 0 min 54 W/m 48,1 km/h (6 Bft)
12.12.2014 14:40 9,4 C 7,8 C 92 % 995,6 hPa 0,0 l/m 0 min 0 min 53 W/m 60,7 km/h (7 Bft)
12.12.2014 14:42 9,4 C 7,8 C 92 % 995,3 hPa 0,0 l/m 0 min 0 min 57 W/m 52,3 km/h (7 Bft)
12.12.2014 14:44 9,4 C 8,3 C 92 % 995,4 hPa 0,0 l/m 0 min 0 min 53 W/m 43,9 km/h (6 Bft)
12.12.2014 14:46 9,4 C 8,3 C 92 % 995,4 hPa 0,0 l/m 0 min 0 min 49 W/m 39,7 km/h (6 Bft)
12.12.2014 14:48 9,4 C 8,3 C 92 % 995,5 hPa 0,0 l/m 0 min 0 min 46 W/m 43,9 km/h (6 Bft)
12.12.2014 14:50 9,4 C 7,8 C 92 % 995,3 hPa 0,0 l/m 0 min 0 min 36 W/m 31,4 km/h (5 Bft)
12.12.2014 14:52 9,5 C 7,8 C 92 % 995,4 hPa 0,0 l/m 0 min 0 min 31 W/m 41,8 km/h (6 Bft)
12.12.2014 14:54 9,5 C 7,8 C 92 % 995,3 hPa 0,0 l/m 0 min 0 min 30 W/m 39,7 km/h (6 Bft)
12.12.2014 14:56 9,5 C 7,8 C 92 % 995,2 hPa 0,0 l/m 0 min 0 min 33 W/m 33,5 km/h (5 Bft)
12.12.2014 14:58 9,5 C 7,8 C 92 % 995,2 hPa 0,0 l/m 0 min 0 min 27 W/m 56,5 km/h (7 Bft)
12.12.2014 15:00 9,5 C 7,8 C 92 % 995,4 hPa 0,0 l/m 0 min 0 min 22 W/m 43,9 km/h (6 Bft)
12.12.2014 15:04 9,4 C 7,8 C 92 % 995,3 hPa 0,0 l/m 0 min 0 min 28 W/m 35,6 km/h (5 Bft)
12.12.2014 15:06 9,4 C 7,8 C 92 % 995,3 hPa 0,0 l/m 0 min 0 min 32 W/m 31,4 km/h (5 Bft)
12.12.2014 15:08 9,4 C 7,8 C 92 % 995,4 hPa 0,0 l/m 0 min 0 min 31 W/m 41,8 km/h (6 Bft)
12.12.2014 15:10 9,4 C 7,8 C 92 % 995,4 hPa 0,0 l/m 0 min 0 min 30 W/m 39,7 km/h (6 Bft)
12.12.2014 15:12 9,4 C 7,8 C 92 % 995,3 hPa 0,0 l/m 0 min 0 min 25 W/m 50,2 km/h (7 Bft)
12.12.2014 15:14 9,4 C 7,8 C 92 % 995,3 hPa 0,0 l/m 0 min 0 min 23 W/m 50,2 km/h (7 Bft)
12.12.2014 15:16 9,4 C 7,8 C 92 % 995,3 hPa 0,0 l/m 0 min 2 min 26 W/m 29,3 km/h (5 Bft)
12.12.2014 15:18 9,4 C 7,8 C 92 % 995,3 hPa 0,0 l/m 0 min 2 min 23 W/m 46,0 km/h (6 Bft)
12.12.2014 15:20 9,4 C 7,8 C 92 % 995,2 hPa 0,0 l/m 0 min 2 min 21 W/m 37,7 km/h (5 Bft)
12.12.2014 15:22 9,4 C 7,8 C 92 % 995,3 hPa 0,0 l/m 0 min 2 min 18 W/m 41,8 km/h (6 Bft)
12.12.2014 15:24 9,4 C 7,8 C 92 % 995,4 hPa 0,0 l/m 0 min 2 min 16 W/m 58,6 km/h (7 Bft)
12.12.2014 15:26 9,4 C 7,8 C 92 % 995,3 hPa 0,0 l/m 0 min 2 min 14 W/m 41,8 km/h (6 Bft)
12.12.2014 15:28 9,3 C 7,8 C 92 % 995,3 hPa 0,2 l/m 0 min 2 min 14 W/m 35,6 km/h (5 Bft)
12.12.2014 15:30 9,3 C 7,8 C 92 % 995,2 hPa 0,0 l/m 0 min 2 min 16 W/m 39,7 km/h (6 Bft)
12.12.2014 15:32 9,3 C 7,2 C 92 % 995,3 hPa 0,0 l/m 0 min 2 min 14 W/m 37,7 km/h (5 Bft)
12.12.2014 15:34 9,3 C 7,2 C 92 % 995,3 hPa 0,0 l/m 0 min 2 min 13 W/m 37,7 km/h (5 Bft)
12.12.2014 15:36 9,3 C 7,2 C 93 % 995,3 hPa 0,0 l/m 0 min 2 min 13 W/m 33,5 km/h (5 Bft)
12.12.2014 15:38 9,3 C 7,2 C 93 % 995,3 hPa 0,0 l/m 0 min 2 min 16 W/m 29,3 km/h (5 Bft)
12.12.2014 15:40 9,3 C 7,2 C 93 % 995,2 hPa 0,0 l/m 0 min 2 min 13 W/m 33,5 km/h (5 Bft)
12.12.2014 15:42 9,3 C 7,2 C 93 % 995,3 hPa 0,2 l/m 0 min 2 min 14 W/m 37,7 km/h (5 Bft)
12.12.2014 15:44 9,3 C 7,2 C 93 % 995,3 hPa 0,0 l/m 0 min 2 min 14 W/m 31,4 km/h (5 Bft)
12.12.2014 15:46 9,2 C 7,2 C 93 % 995,1 hPa 0,0 l/m 0 min 2 min 13 W/m 46,0 km/h (6 Bft)
12.12.2014 15:48 9,2 C 7,2 C 93 % 995,1 hPa 0,0 l/m 0 min 2 min 10 W/m 43,9 km/h (6 Bft)
12.12.2014 15:50 9,2 C 7,2 C 93 % 995,1 hPa 0,0 l/m 0 min 2 min 8 W/m 27,2 km/h (4 Bft)
12.12.2014 15:52 9,2 C 7,2 C 93 % 995,1 hPa 0,0 l/m 0 min 2 min 8 W/m 37,7 km/h (5 Bft)
12.12.2014 15:54 9,2 C 7,2 C 93 % 995,1 hPa 0,0 l/m 0 min 2 min 9 W/m 39,7 km/h (6 Bft)
12.12.2014 15:56 9,2 C 7,2 C 93 % 995,1 hPa 0,2 l/m 0 min 2 min 8 W/m 37,7 km/h (5 Bft)
12.12.2014 15:58 9,2 C 7,2 C 93 % 995,2 hPa 0,0 l/m 0 min 2 min 8 W/m 39,7 km/h (6 Bft)
12.12.2014 16:00 9,1 C 7,2 C 93 % 995,1 hPa 0,0 l/m 0 min 2 min 6 W/m 37,7 km/h (5 Bft)
12.12.2014 16:02 9,1 C 7,2 C 94 % 995,2 hPa 0,0 l/m 0 min 2 min 5 W/m 39,7 km/h (6 Bft)
12.12.2014 16:04 9,1 C 7,2 C 94 % 995,4 hPa 0,2 l/m 0 min 2 min 4 W/m 50,2 km/h (7 Bft)
12.12.2014 16:06 9,1 C 7,2 C 94 % 995,4 hPa 0,0 l/m 0 min 2 min 0 W/m 35,6 km/h (5 Bft)
12.12.2014 16:08 9,1 C 7,2 C 94 % 995,3 hPa 0,0 l/m 0 min 2 min 3 W/m 29,3 km/h (5 Bft)
12.12.2014 16:10 9,1 C 7,2 C 94 % 995,2 hPa 0,0 l/m 0 min 2 min 5 W/m 25,1 km/h (4 Bft)
12.12.2014 16:12 9,1 C 7,2 C 94 % 995,2 hPa 0,0 l/m 0 min 2 min 1 W/m 52,3 km/h (7 Bft)
12.12.2014 16:14 9,1 C 7,2 C 94 % 995,5 hPa 0,0 l/m 0 min 2 min 0 W/m 33,5 km/h (5 Bft)
12.12.2014 16:16 9,1 C 7,2 C 94 % 995,6 hPa 0,0 l/m 0 min 2 min 0 W/m 37,7 km/h (5 Bft)
12.12.2014 16:18 9,1 C 7,2 C 94 % 995,7 hPa 0,2 l/m 0 min 2 min 0 W/m 43,9 km/h (6 Bft)
12.12.2014 16:20 9,1 C 7,2 C 94 % 995,7 hPa 0,0 l/m 0 min 2 min 0 W/m 39,7 km/h (6 Bft)
12.12.2014 16:22 9,1 C 7,2 C 94 % 995,9 hPa 0,2 l/m 0 min 2 min 0 W/m 23,0 km/h (4 Bft)
12.12.2014 16:24 9,1 C 7,2 C 94 % 995,8 hPa 0,2 l/m 0 min 2 min 0 W/m 20,9 km/h (4 Bft)
12.12.2014 16:26 9,1 C 7,2 C 94 % 995,9 hPa 0,4 l/m 0 min 0 min 0 W/m 25,1 km/h (4 Bft)
12.12.2014 16:28 9,1 C 7,2 C 94 % 995,8 hPa 0,2 l/m 0 min 0 min 0 W/m 16,7 km/h (3 Bft)
12.12.2014 16:30 9,1 C 7,2 C 95 % 995,8 hPa 0,4 l/m 0 min 0 min 0 W/m 16,7 km/h (3 Bft)
12.12.2014 16:32 9,1 C 7,2 C 95 % 995,8 hPa 0,0 l/m 0 min 0 min 0 W/m 23,0 km/h (4 Bft)
12.12.2014 16:34 9,1 C 7,2 C 95 % 995,8 hPa 0,0 l/m 0 min 0 min 0 W/m 33,5 km/h (5 Bft)
12.12.2014 16:36 9,1 C 7,2 C 95 % 995,9 hPa 0,2 l/m 0 min 0 min 0 W/m 33,5 km/h (5 Bft)
12.12.2014 16:38 9,0 C 7,2 C 95 % 995,8 hPa 0,2 l/m 0 min 0 min 0 W/m 27,2 km/h (4 Bft)
12.12.2014 16:40 9,0 C 7,2 C 95 % 995,7 hPa 0,0 l/m 0 min 0 min 0 W/m 25,1 km/h (4 Bft)
12.12.2014 16:42 9,0 C 7,2 C 95 % 995,8 hPa 0,0 l/m 0 min 0 min 0 W/m 23,0 km/h (4 Bft)
12.12.2014 16:44 9,0 C 7,2 C 95 % 995,7 hPa 0,0 l/m 0 min 0 min 0 W/m 23,0 km/h (4 Bft)
12.12.2014 16:46 9,0 C 7,2 C 95 % 995,7 hPa 0,0 l/m 0 min 0 min 0 W/m 23,0 km/h (4 Bft)
12.12.2014 16:48 9,0 C 7,2 C 95 % 995,8 hPa 0,2 l/m 0 min 0 min 0 W/m 25,1 km/h (4 Bft)
12.12.2014 16:50 9,0 C 7,2 C 95 % 995,8 hPa 0,2 l/m 0 min 2 min 0 W/m 18,8 km/h (3 Bft)
12.12.2014 16:52 8,9 C 7,2 C 95 % 995,8 hPa 0,0 l/m 0 min 0 min 0 W/m 18,8 km/h (3 Bft)
12.12.2014 16:54 8,9 C 7,2 C 95 % 995,9 hPa 0,2 l/m 0 min 2 min 0 W/m 16,7 km/h (3 Bft)
12.12.2014 16:56 8,9 C 7,2 C 95 % 995,8 hPa 0,2 l/m 0 min 0 min 0 W/m 16,7 km/h (3 Bft)
12.12.2014 16:58 8,9 C 7,2 C 95 % 995,8 hPa 0,0 l/m 0 min 0 min 0 W/m 20,9 km/h (4 Bft)
12.12.2014 17:00 8,9 C 7,2 C 95 % 995,7 hPa 0,0 l/m 0 min 0 min 0 W/m 18,8 km/h (3 Bft)
12.12.2014 17:02 8,9 C 7,2 C 95 % 995,7 hPa 0,0 l/m 0 min 0 min 0 W/m 23,0 km/h (4 Bft)
12.12.2014 17:04 8,9 C 7,2 C 95 % 995,7 hPa 0,0 l/m 0 min 0 min 0 W/m 31,4 km/h (5 Bft)
12.12.2014 17:06 8,9 C 7,2 C 96 % 995,7 hPa 0,2 l/m 0 min 0 min 0 W/m 23,0 km/h (4 Bft)
12.12.2014 17:08 8,9 C 7,2 C 96 % 995,7 hPa 0,0 l/m 0 min 0 min 0 W/m 23,0 km/h (4 Bft)
12.12.2014 17:10 8,9 C 7,2 C 96 % 995,8 hPa 0,0 l/m 0 min 0 min 0 W/m 25,1 km/h (4 Bft)
12.12.2014 17:12 8,9 C 7,2 C 96 % 995,8 hPa 0,0 l/m 0 min 0 min 0 W/m 25,1 km/h (4 Bft)
12.12.2014 17:14 8,9 C 7,2 C 96 % 995,8 hPa 0,0 l/m 0 min 2 min 0 W/m 31,4 km/h (5 Bft)
12.12.2014 17:16 8,9 C 7,2 C 96 % 995,9 hPa 0,0 l/m 0 min 0 min 0 W/m 27,2 km/h (4 Bft)
12.12.2014 17:18 8,9 C 7,2 C 96 % 996,0 hPa 0,2 l/m 0 min 0 min 0 W/m 23,0 km/h (4 Bft)
12.12.2014 17:20 8,9 C 7,2 C 96 % 995,9 hPa 0,0 l/m 0 min 0 min 0 W/m 25,1 km/h (4 Bft)
12.12.2014 17:22 8,9 C 7,2 C 96 % 995,9 hPa 0,0 l/m 0 min 0 min 0 W/m 23,0 km/h (4 Bft)
12.12.2014 17:24 8,9 C 7,2 C 96 % 995,9 hPa 0,0 l/m 0 min 0 min 0 W/m 31,4 km/h (5 Bft)
12.12.2014 17:26 8,8 C 7,2 C 96 % 995,9 hPa 0,2 l/m 0 min 0 min 0 W/m 31,4 km/h (5 Bft)
12.12.2014 17:28 8,9 C 7,2 C 96 % 995,9 hPa 0,2 l/m 0 min 0 min 0 W/m 23,0 km/h (4 Bft)
12.12.2014 17:30 8,9 C 7,2 C 96 % 996,0 hPa 0,0 l/m 0 min 0 min 0 W/m 23,0 km/h (4 Bft)
12.12.2014 17:32 8,9 C 7,2 C 96 % 996,0 hPa 0,0 l/m 0 min 0 min 0 W/m 25,1 km/h (4 Bft)
12.12.2014 17:34 8,9 C 7,2 C 96 % 995,9 hPa 0,2 l/m 0 min 0 min 0 W/m 16,7 km/h (3 Bft)
12.12.2014 17:36 8,9 C 7,2 C 96 % 996,1 hPa 0,2 l/m 0 min 0 min 0 W/m 18,8 km/h (3 Bft)
12.12.2014 17:38 8,9 C 7,2 C 96 % 996,1 hPa 0,0 l/m 0 min 0 min 0 W/m 20,9 km/h (4 Bft)
12.12.2014 17:40 8,9 C 7,2 C 96 % 996,2 hPa 0,0 l/m 0 min 0 min 0 W/m 29,3 km/h (5 Bft)
12.12.2014 17:42 8,8 C 7,2 C 96 % 996,2 hPa 0,2 l/m 0 min 0 min 0 W/m 35,6 km/h (5 Bft)
12.12.2014 17:44 8,8 C 7,2 C 96 % 996,4 hPa 0,0 l/m 0 min 0 min 0 W/m 41,8 km/h (6 Bft)
12.12.2014 17:46 8,8 C 7,2 C 96 % 996,4 hPa 0,2 l/m 0 min 2 min 0 W/m 33,5 km/h (5 Bft)
12.12.2014 17:48 8,8 C 7,2 C 96 % 996,4 hPa 0,0 l/m 0 min 2 min 0 W/m 23,0 km/h (4 Bft)
12.12.2014 17:50 8,7 C 7,2 C 96 % 996,5 hPa 0,0 l/m 0 min 2 min 0 W/m 31,4 km/h (5 Bft)
12.12.2014 17:52 8,7 C 7,2 C 96 % 996,5 hPa 0,0 l/m 0 min 2 min 0 W/m 43,9 km/h (6 Bft)
12.12.2014 17:54 8,7 C 6,7 C 96 % 996,6 hPa 0,0 l/m 0 min 2 min 0 W/m 25,1 km/h (4 Bft)
12.12.2014 17:56 8,7 C 6,7 C 96 % 996,6 hPa 0,0 l/m 0 min 2 min 0 W/m 23,0 km/h (4 Bft)
12.12.2014 17:58 8,7 C 6,7 C 96 % 996,6 hPa 0,0 l/m 0 min 2 min 0 W/m 35,6 km/h (5 Bft)
12.12.2014 18:00 8,6 C 6,7 C 96 % 996,6 hPa 0,2 l/m 0 min 2 min 0 W/m 31,4 km/h (5 Bft)
12.12.2014 18:02 8,6 C 6,7 C 96 % 996,6 hPa 0,0 l/m 0 min 2 min 0 W/m 29,3 km/h (5 Bft)
12.12.2014 18:06 8,6 C 6,7 C 96 % 996,6 hPa 0,2 l/m 0 min 2 min 0 W/m 35,6 km/h (5 Bft)
12.12.2014 18:08 8,5 C 6,7 C 96 % 996,6 hPa 0,0 l/m 0 min 2 min 0 W/m 27,2 km/h (4 Bft)
12.12.2014 18:10 8,5 C 6,7 C 96 % 996,7 hPa 0,0 l/m 0 min 2 min 0 W/m 25,1 km/h (4 Bft)
12.12.2014 18:12 8,5 C 6,7 C 96 % 996,7 hPa 0,0 l/m 0 min 2 min 0 W/m 27,2 km/h (4 Bft)
12.12.2014 18:14 8,5 C 6,7 C 96 % 996,8 hPa 0,2 l/m 0 min 2 min 0 W/m 33,5 km/h (5 Bft)
12.12.2014 18:16 8,4 C 6,7 C 96 % 996,8 hPa 0,0 l/m 0 min 2 min 0 W/m 23,0 km/h (4 Bft)
12.12.2014 18:18 8,4 C 6,7 C 96 % 996,9 hPa 0,0 l/m 0 min 2 min 0 W/m 29,3 km/h (5 Bft)
12.12.2014 18:20 8,4 C 6,7 C 96 % 996,9 hPa 0,2 l/m 0 min 2 min 0 W/m 25,1 km/h (4 Bft)
12.12.2014 18:22 8,4 C 6,7 C 96 % 997,0 hPa 0,0 l/m 0 min 2 min 0 W/m 25,1 km/h (4 Bft)
12.12.2014 18:24 8,4 C 6,7 C 96 % 997,1 hPa 0,0 l/m 0 min 2 min 0 W/m 27,2 km/h (4 Bft)
12.12.2014 18:26 8,4 C 6,7 C 96 % 997,1 hPa 0,2 l/m 0 min 2 min 0 W/m 27,2 km/h (4 Bft)
12.12.2014 18:28 8,4 C 6,7 C 96 % 997,2 hPa 0,0 l/m 0 min 0 min 0 W/m 29,3 km/h (5 Bft)
12.12.2014 18:30 8,3 C 6,7 C 96 % 997,1 hPa 0,2 l/m 0 min 0 min 0 W/m 31,4 km/h (5 Bft)
12.12.2014 18:32 8,3 C 6,7 C 96 % 997,2 hPa 0,0 l/m 0 min 0 min 0 W/m 25,1 km/h (4 Bft)
12.12.2014 18:34 8,3 C 6,7 C 96 % 997,2 hPa 0,0 l/m 0 min 2 min 0 W/m 33,5 km/h (5 Bft)
12.12.2014 18:36 8,3 C 6,7 C 96 % 997,2 hPa 0,2 l/m 0 min 2 min 0 W/m 31,4 km/h (5 Bft)
12.12.2014 18:38 8,3 C 6,7 C 96 % 997,2 hPa 0,0 l/m 0 min 2 min 0 W/m 37,7 km/h (5 Bft)
12.12.2014 18:40 8,3 C 6,7 C 96 % 997,2 hPa 0,2 l/m 0 min 2 min 0 W/m 27,2 km/h (4 Bft)
12.12.2014 18:42 8,3 C 6,7 C 96 % 997,2 hPa 0,0 l/m 0 min 0 min 0 W/m 23,0 km/h (4 Bft)
12.12.2014 18:44 8,3 C 6,7 C 96 % 997,2 hPa 0,0 l/m 0 min 0 min 0 W/m 23,0 km/h (4 Bft)
12.12.2014 18:46 8,3 C 6,7 C 96 % 997,3 hPa 0,0 l/m 0 min 0 min 0 W/m 37,7 km/h (5 Bft)
12.12.2014 18:48 8,3 C 6,7 C 96 % 997,3 hPa 0,2 l/m 0 min 0 min 0 W/m 29,3 km/h (5 Bft)
12.12.2014 18:50 8,2 C 6,7 C 96 % 997,4 hPa 0,0 l/m 0 min 0 min 0 W/m 31,4 km/h (5 Bft)
12.12.2014 18:52 8,2 C 6,7 C 96 % 997,4 hPa 0,0 l/m 0 min 0 min 0 W/m 37,7 km/h (5 Bft)
12.12.2014 18:54 8,2 C 6,7 C 96 % 997,4 hPa 0,2 l/m 0 min 0 min 0 W/m 29,3 km/h (5 Bft)
12.12.2014 18:56 8,2 C 6,7 C 96 % 997,5 hPa 0,0 l/m 0 min 0 min 0 W/m 27,2 km/h (4 Bft)
12.12.2014 18:58 8,2 C 6,7 C 96 % 997,5 hPa 0,0 l/m 0 min 0 min 0 W/m 27,2 km/h (4 Bft)
12.12.2014 19:00 8,2 C 6,7 C 96 % 997,6 hPa 0,0 l/m 0 min 0 min 0 W/m 27,2 km/h (4 Bft)
12.12.2014 19:02 8,1 C 6,7 C 96 % 997,7 hPa 0,0 l/m 0 min 0 min 0 W/m 33,5 km/h (5 Bft)
12.12.2014 19:04 8,1 C 6,7 C 96 % 997,7 hPa 0,0 l/m 0 min 0 min 0 W/m 27,2 km/h (4 Bft)
12.12.2014 19:06 8,1 C 6,7 C 96 % 997,7 hPa 0,0 l/m 0 min 2 min 0 W/m 31,4 km/h (5 Bft)
12.12.2014 19:08 8,1 C 6,7 C 96 % 997,9 hPa 0,0 l/m 0 min 2 min 0 W/m 31,4 km/h (5 Bft)
12.12.2014 19:10 8,1 C 6,7 C 96 % 998,0 hPa 0,2 l/m 0 min 2 min 0 W/m 25,1 km/h (4 Bft)
12.12.2014 19:12 8,1 C 6,7 C 96 % 997,9 hPa 0,0 l/m 0 min 2 min 0 W/m 20,9 km/h (4 Bft)
12.12.2014 19:14 8,1 C 6,7 C 96 % 998,0 hPa 0,0 l/m 0 min 2 min 0 W/m 25,1 km/h (4 Bft)
12.12.2014 19:16 8,1 C 6,7 C 96 % 998,0 hPa 0,2 l/m 0 min 2 min 0 W/m 27,2 km/h (4 Bft)
12.12.2014 19:18 8,1 C 6,7 C 96 % 998,0 hPa 0,0 l/m 0 min 2 min 0 W/m 25,1 km/h (4 Bft)
12.12.2014 19:20 8,1 C 6,7 C 96 % 998,0 hPa 0,0 l/m 0 min 2 min 0 W/m 41,8 km/h (6 Bft)
12.12.2014 19:22 8,1 C 6,7 C 96 % 998,0 hPa 0,0 l/m 0 min 2 min 0 W/m 33,5 km/h (5 Bft)
12.12.2014 19:24 8,1 C 6,7 C 96 % 998,0 hPa 0,0 l/m 0 min 2 min 0 W/m 25,1 km/h (4 Bft)
12.12.2014 19:26 8,1 C 6,7 C 96 % 998,1 hPa 0,0 l/m 0 min 2 min 0 W/m 35,6 km/h (5 Bft)
12.12.2014 19:28 8,1 C 6,7 C 96 % 998,1 hPa 0,0 l/m 0 min 2 min 0 W/m 31,4 km/h (5 Bft)
12.12.2014 19:30 8,1 C 6,1 C 96 % 998,1 hPa 0,2 l/m 0 min 2 min 0 W/m 41,8 km/h (6 Bft)
12.12.2014 19:32 8,0 C 6,1 C 96 % 998,1 hPa 0,0 l/m 0 min 2 min 0 W/m 35,6 km/h (5 Bft)
12.12.2014 19:34 8,0 C 6,1 C 95 % 998,3 hPa 0,0 l/m 0 min 2 min 0 W/m 31,4 km/h (5 Bft)
12.12.2014 19:36 8,0 C 6,1 C 96 % 998,4 hPa 0,0 l/m 0 min 2 min 0 W/m 31,4 km/h (5 Bft)
12.12.2014 19:38 7,9 C 6,1 C 96 % 998,4 hPa 0,2 l/m 0 min 2 min 0 W/m 35,6 km/h (5 Bft)
12.12.2014 19:40 7,9 C 6,1 C 95 % 998,5 hPa 0,0 l/m 0 min 2 min 0 W/m 37,7 km/h (5 Bft)
12.12.2014 19:42 7,9 C 6,1 C 95 % 998,5 hPa 0,0 l/m 0 min 2 min 0 W/m 31,4 km/h (5 Bft)
12.12.2014 19:44 7,9 C 6,1 C 95 % 998,6 hPa 0,0 l/m 0 min 2 min 0 W/m 31,4 km/h (5 Bft)
12.12.2014 19:46 7,8 C 6,1 C 95 % 998,7 hPa 0,0 l/m 0 min 2 min 0 W/m 33,5 km/h (5 Bft)
12.12.2014 19:48 7,8 C 6,1 C 95 % 998,8 hPa 0,0 l/m 0 min 2 min 0 W/m 33,5 km/h (5 Bft)
12.12.2014 19:50 7,8 C 6,1 C 95 % 998,7 hPa 0,0 l/m 0 min 2 min 0 W/m 29,3 km/h (5 Bft)
12.12.2014 19:52 7,7 C 6,1 C 95 % 998,7 hPa 0,0 l/m 0 min 2 min 0 W/m 29,3 km/h (5 Bft)
12.12.2014 19:54 7,7 C 5,6 C 95 % 998,7 hPa 0,0 l/m 0 min 2 min 0 W/m 31,4 km/h (5 Bft)
12.12.2014 19:56 7,7 C 5,6 C 95 % 998,7 hPa 0,0 l/m 0 min 2 min 0 W/m 35,6 km/h (5 Bft)
12.12.2014 19:58 7,6 C 5,6 C 95 % 998,7 hPa 0,0 l/m 0 min 2 min 0 W/m 25,1 km/h (4 Bft)
12.12.2014 20:00 7,6 C 5,6 C 95 % 998,8 hPa 0,0 l/m 0 min 2 min 0 W/m 20,9 km/h (4 Bft)
12.12.2014 20:02 7,5 C 5,6 C 95 % 998,8 hPa 0,0 l/m 0 min 2 min 0 W/m 23,0 km/h (4 Bft)
12.12.2014 20:04 7,5 C 5,6 C 95 % 998,8 hPa 0,0 l/m 0 min 2 min 0 W/m 35,6 km/h (5 Bft)
12.12.2014 20:06 7,4 C 5,6 C 95 % 998,8 hPa 0,0 l/m 0 min 2 min 0 W/m 20,9 km/h (4 Bft)
12.12.2014 20:08 7,4 C 5,6 C 95 % 998,9 hPa 0,0 l/m 0 min 2 min 0 W/m 25,1 km/h (4 Bft)
12.12.2014 20:10 7,4 C 5,6 C 95 % 999,0 hPa 0,0 l/m 0 min 2 min 0 W/m 27,2 km/h (4 Bft)
12.12.2014 20:12 7,4 C 5,6 C 95 % 999,0 hPa 0,0 l/m 0 min 2 min 0 W/m 20,9 km/h (4 Bft)
12.12.2014 20:14 7,3 C 5,6 C 95 % 999,2 hPa 0,0 l/m 0 min 2 min 0 W/m 20,9 km/h (4 Bft)
12.12.2014 20:16 7,3 C 5,6 C 94 % 999,2 hPa 0,0 l/m 0 min 2 min 0 W/m 27,2 km/h (4 Bft)
12.12.2014 20:18 7,3 C 5,6 C 94 % 999,3 hPa 0,0 l/m 0 min 2 min 0 W/m 25,1 km/h (4 Bft)
12.12.2014 20:20 7,3 C 5,6 C 94 % 999,4 hPa 0,0 l/m 0 min 2 min 0 W/m 25,1 km/h (4 Bft)
12.12.2014 20:22 7,3 C 5,6 C 94 % 999,4 hPa 0,0 l/m 0 min 2 min 0 W/m 18,8 km/h (3 Bft)
12.12.2014 20:24 7,3 C 5,6 C 94 % 999,4 hPa 0,2 l/m 0 min 2 min 0 W/m 35,6 km/h (5 Bft)
12.12.2014 20:26 7,3 C 5,6 C 94 % 999,4 hPa 0,0 l/m 0 min 2 min 0 W/m 25,1 km/h (4 Bft)
12.12.2014 20:28 7,3 C 5,6 C 94 % 999,4 hPa 0,0 l/m 0 min 2 min 0 W/m 25,1 km/h (4 Bft)
12.12.2014 20:30 7,3 C 5,6 C 94 % 999,4 hPa 0,0 l/m 0 min 2 min 0 W/m 31,4 km/h (5 Bft)
12.12.2014 20:32 7,3 C 5,6 C 94 % 999,4 hPa 0,0 l/m 0 min 2 min 0 W/m 31,4 km/h (5 Bft)
12.12.2014 20:34 7,3 C 5,6 C 94 % 999,5 hPa 0,0 l/m 0 min 2 min 0 W/m 33,5 km/h (5 Bft)
12.12.2014 20:36 7,3 C 5,6 C 94 % 999,4 hPa 0,0 l/m 0 min 2 min 0 W/m 25,1 km/h (4 Bft)
12.12.2014 20:38 7,3 C 5,6 C 94 % 999,5 hPa 0,0 l/m 0 min 2 min 0 W/m 25,1 km/h (4 Bft)
12.12.2014 20:40 7,3 C 5,6 C 94 % 999,4 hPa 0,0 l/m 0 min 2 min 0 W/m 29,3 km/h (5 Bft)
12.12.2014 20:42 7,3 C 5,6 C 94 % 999,5 hPa 0,0 l/m 0 min 2 min 0 W/m 29,3 km/h (5 Bft)
12.12.2014 20:44 7,3 C 5,6 C 94 % 999,5 hPa 0,0 l/m 0 min 2 min 0 W/m 31,4 km/h (5 Bft)
12.12.2014 20:46 7,3 C 5,6 C 94 % 999,6 hPa 0,0 l/m 0 min 2 min 0 W/m 31,4 km/h (5 Bft)
12.12.2014 20:48 7,3 C 5,6 C 94 % 999,7 hPa 0,0 l/m 0 min 2 min 0 W/m 31,4 km/h (5 Bft)
12.12.2014 20:50 7,3 C 5,6 C 94 % 999,8 hPa 0,0 l/m 0 min 2 min 0 W/m 37,7 km/h (5 Bft)
12.12.2014 20:52 7,3 C 5,6 C 94 % 999,8 hPa 0,0 l/m 0 min 2 min 0 W/m 31,4 km/h (5 Bft)
12.12.2014 20:54 7,3 C 5,6 C 94 % 999,8 hPa 0,0 l/m 0 min 2 min 0 W/m 29,3 km/h (5 Bft)
12.12.2014 20:56 7,3 C 5,6 C 94 % 999,9 hPa 0,0 l/m 0 min 2 min 0 W/m 33,5 km/h (5 Bft)
12.12.2014 20:58 7,3 C 5,6 C 94 % 1000,0 hPa 0,0 l/m 0 min 2 min 0 W/m 39,7 km/h (6 Bft)
12.12.2014 21:00 7,3 C 5,6 C 94 % 1000,0 hPa 0,0 l/m 0 min 2 min 0 W/m 33,5 km/h (5 Bft)
12.12.2014 21:02 7,3 C 5,6 C 94 % 1000,0 hPa 0,2 l/m 0 min 2 min 0 W/m 29,3 km/h (5 Bft)
12.12.2014 21:04 7,3 C 5,6 C 94 % 1000,1 hPa 0,0 l/m 0 min 2 min 0 W/m 27,2 km/h (4 Bft)
12.12.2014 21:06 7,3 C 5,6 C 94 % 1000,2 hPa 0,0 l/m 0 min 2 min 0 W/m 33,5 km/h (5 Bft)
12.12.2014 21:08 7,3 C 5,6 C 94 % 1000,2 hPa 0,0 l/m 0 min 2 min 0 W/m 35,6 km/h (5 Bft)
12.12.2014 21:10 7,3 C 5,6 C 94 % 1000,3 hPa 0,0 l/m 0 min 2 min 0 W/m 29,3 km/h (5 Bft)
12.12.2014 21:12 7,3 C 5,6 C 94 % 1000,3 hPa 0,0 l/m 0 min 2 min 0 W/m 23,0 km/h (4 Bft)
12.12.2014 21:14 7,3 C 5,6 C 94 % 1000,4 hPa 0,0 l/m 0 min 2 min 0 W/m 23,0 km/h (4 Bft)
12.12.2014 21:16 7,2 C 5,6 C 94 % 1000,5 hPa 0,0 l/m 0 min 2 min 0 W/m 27,2 km/h (4 Bft)
12.12.2014 21:18 7,2 C 5,6 C 94 % 1000,6 hPa 0,2 l/m 0 min 2 min 0 W/m 20,9 km/h (4 Bft)
12.12.2014 21:20 7,2 C 5,6 C 94 % 1000,7 hPa 0,0 l/m 0 min 2 min 0 W/m 16,7 km/h (3 Bft)
12.12.2014 21:22 7,2 C 5,6 C 94 % 1000,7 hPa 0,0 l/m 0 min 2 min 0 W/m 18,8 km/h (3 Bft)
12.12.2014 21:24 7,2 C 5,6 C 94 % 1000,7 hPa 0,0 l/m 0 min 2 min 0 W/m 20,9 km/h (4 Bft)
12.12.2014 21:26 7,2 C 5,6 C 94 % 1000,8 hPa 0,2 l/m 0 min 2 min 0 W/m 16,7 km/h (3 Bft)
12.12.2014 21:28 7,2 C 5,6 C 94 % 1000,9 hPa 0,0 l/m 0 min 2 min 0 W/m 23,0 km/h (4 Bft)
12.12.2014 21:30 7,2 C 5,6 C 94 % 1000,9 hPa 0,0 l/m 0 min 2 min 0 W/m 16,7 km/h (3 Bft)
12.12.2014 21:32 7,2 C 5,6 C 94 % 1000,9 hPa 0,0 l/m 0 min 2 min 0 W/m 23,0 km/h (4 Bft)
12.12.2014 21:34 7,1 C 5,6 C 94 % 1001,0 hPa 0,0 l/m 0 min 2 min 0 W/m 18,8 km/h (3 Bft)
12.12.2014 21:36 7,1 C 5,6 C 94 % 1001,1 hPa 0,2 l/m 0 min 2 min 0 W/m 23,0 km/h (4 Bft)
12.12.2014 21:38 7,1 C 5,6 C 94 % 1001,1 hPa 0,0 l/m 0 min 2 min 0 W/m 18,8 km/h (3 Bft)
12.12.2014 21:40 7,1 C 5,6 C 94 % 1001,2 hPa 0,2 l/m 0 min 2 min 0 W/m 20,9 km/h (4 Bft)
12.12.2014 21:42 7,1 C 5,6 C 94 % 1001,2 hPa 0,0 l/m 0 min 2 min 0 W/m 16,7 km/h (3 Bft)
12.12.2014 21:44 7,1 C 5,6 C 94 % 1001,2 hPa 0,0 l/m 0 min 2 min 0 W/m 18,8 km/h (3 Bft)
12.12.2014 21:46 7,0 C 5,6 C 94 % 1001,2 hPa 0,0 l/m 0 min 2 min 0 W/m 25,1 km/h (4 Bft)
12.12.2014 21:48 7,0 C 5,6 C 94 % 1001,2 hPa 0,2 l/m 0 min 2 min 0 W/m 20,9 km/h (4 Bft)
12.12.2014 21:50 7,0 C 5,0 C 94 % 1001,2 hPa 0,0 l/m 0 min 2 min 0 W/m 27,2 km/h (4 Bft)
12.12.2014 21:52 6,9 C 5,0 C 94 % 1001,2 hPa 0,0 l/m 0 min 2 min 0 W/m 20,9 km/h (4 Bft)
12.12.2014 21:54 6,9 C 5,0 C 94 % 1001,3 hPa 0,2 l/m 0 min 2 min 0 W/m 27,2 km/h (4 Bft)
12.12.2014 21:56 6,9 C 5,0 C 94 % 1001,3 hPa 0,0 l/m 0 min 2 min 0 W/m 25,1 km/h (4 Bft)
12.12.2014 21:58 6,9 C 5,0 C 94 % 1001,4 hPa 0,0 l/m 0 min 0 min 0 W/m 33,5 km/h (5 Bft)
12.12.2014 22:00 6,8 C 5,0 C 94 % 1001,3 hPa 0,0 l/m 0 min 0 min 0 W/m 23,0 km/h (4 Bft)
12.12.2014 22:02 6,8 C 5,0 C 95 % 1001,4 hPa 0,0 l/m 0 min 0 min 0 W/m 20,9 km/h (4 Bft)
12.12.2014 22:04 6,8 C 5,0 C 95 % 1001,4 hPa 0,0 l/m 0 min 2 min 0 W/m 20,9 km/h (4 Bft)
12.12.2014 22:06 6,8 C 5,0 C 95 % 1001,4 hPa 0,0 l/m 0 min 2 min 0 W/m 23,0 km/h (4 Bft)
12.12.2014 22:08 6,8 C 5,0 C 95 % 1001,4 hPa 0,0 l/m 0 min 2 min 0 W/m 23,0 km/h (4 Bft)
12.12.2014 22:10 6,7 C 5,0 C 95 % 1001,4 hPa 0,0 l/m 0 min 2 min 0 W/m 18,8 km/h (3 Bft)
12.12.2014 22:12 6,7 C 5,0 C 95 % 1001,4 hPa 0,0 l/m 0 min 2 min 0 W/m 20,9 km/h (4 Bft)
12.12.2014 22:14 6,7 C 5,0 C 95 % 1001,6 hPa 0,0 l/m 0 min 0 min 0 W/m 20,9 km/h (4 Bft)
12.12.2014 22:16 6,7 C 5,0 C 95 % 1001,6 hPa 0,0 l/m 0 min 2 min 0 W/m 27,2 km/h (4 Bft)
12.12.2014 22:18 6,7 C 5,0 C 95 % 1001,7 hPa 0,0 l/m 0 min 2 min 0 W/m 16,7 km/h (3 Bft)
12.12.2014 22:20 6,7 C 5,0 C 95 % 1001,7 hPa 0,0 l/m 0 min 2 min 0 W/m 18,8 km/h (3 Bft)
12.12.2014 22:22 6,7 C 5,0 C 95 % 1001,6 hPa 0,0 l/m 0 min 2 min 0 W/m 18,8 km/h (3 Bft)
12.12.2014 22:24 6,7 C 5,0 C 95 % 1001,7 hPa 0,2 l/m 0 min 2 min 0 W/m 23,0 km/h (4 Bft)
12.12.2014 22:26 6,7 C 5,0 C 95 % 1001,7 hPa 0,0 l/m 0 min 2 min 0 W/m 18,8 km/h (3 Bft)
12.12.2014 22:28 6,7 C 5,0 C 95 % 1001,8 hPa 0,0 l/m 0 min 2 min 0 W/m 27,2 km/h (4 Bft)
12.12.2014 22:30 6,7 C 5,0 C 95 % 1001,8 hPa 0,0 l/m 0 min 2 min 0 W/m 18,8 km/h (3 Bft)
12.12.2014 22:32 6,7 C 5,0 C 95 % 1001,9 hPa 0,0 l/m 0 min 2 min 0 W/m 27,2 km/h (4 Bft)
12.12.2014 22:34 6,7 C 5,0 C 95 % 1001,9 hPa 0,0 l/m 0 min 2 min 0 W/m 27,2 km/h (4 Bft)
12.12.2014 22:36 6,7 C 5,0 C 95 % 1002,0 hPa 0,0 l/m 0 min 2 min 0 W/m 23,0 km/h (4 Bft)
12.12.2014 22:38 6,6 C 5,0 C 95 % 1002,0 hPa 0,2 l/m 0 min 2 min 0 W/m 16,7 km/h (3 Bft)
12.12.2014 22:40 6,6 C 5,0 C 95 % 1002,1 hPa 0,0 l/m 0 min 2 min 0 W/m 16,7 km/h (3 Bft)
12.12.2014 22:42 6,6 C 5,0 C 95 % 1002,1 hPa 0,0 l/m 0 min 2 min 0 W/m 16,7 km/h (3 Bft)
12.12.2014 22:44 6,6 C 5,0 C 95 % 1002,2 hPa 0,0 l/m 0 min 2 min 0 W/m 12,6 km/h (3 Bft)
12.12.2014 22:46 6,6 C 5,0 C 95 % 1002,4 hPa 0,2 l/m 0 min 2 min 0 W/m 18,8 km/h (3 Bft)
12.12.2014 22:48 6,6 C 5,0 C 95 % 1002,4 hPa 0,2 l/m 0 min 2 min 0 W/m 16,7 km/h (3 Bft)
12.12.2014 22:50 6,6 C 5,0 C 95 % 1002,4 hPa 0,0 l/m 0 min 2 min 0 W/m 23,0 km/h (4 Bft)
12.12.2014 22:52 6,6 C 5,0 C 95 % 1002,5 hPa 0,0 l/m 0 min 2 min 0 W/m 29,3 km/h (5 Bft)
12.12.2014 22:54 6,5 C 4,4 C 95 % 1002,6 hPa 0,2 l/m 0 min 2 min 0 W/m 25,1 km/h (4 Bft)
12.12.2014 22:56 6,4 C 4,4 C 95 % 1002,5 hPa 0,0 l/m 0 min 2 min 0 W/m 23,0 km/h (4 Bft)
12.12.2014 22:58 6,4 C 4,4 C 95 % 1002,6 hPa 0,2 l/m 0 min 0 min 0 W/m 18,8 km/h (3 Bft)
12.12.2014 23:00 6,3 C 4,4 C 95 % 1002,6 hPa 0,0 l/m 0 min 2 min 0 W/m 20,9 km/h (4 Bft)
12.12.2014 23:02 6,3 C 4,4 C 95 % 1002,7 hPa 0,0 l/m 0 min 2 min 0 W/m 20,9 km/h (4 Bft)
12.12.2014 23:04 6,3 C 4,4 C 95 % 1002,8 hPa 0,0 l/m 0 min 2 min 0 W/m 12,6 km/h (3 Bft)
12.12.2014 23:06 6,2 C 4,4 C 95 % 1002,8 hPa 0,0 l/m 0 min 2 min 0 W/m 16,7 km/h (3 Bft)
12.12.2014 23:08 6,2 C 4,4 C 95 % 1002,8 hPa 0,0 l/m 0 min 2 min 0 W/m 18,8 km/h (3 Bft)
12.12.2014 23:10 6,2 C 4,4 C 95 % 1002,9 hPa 0,0 l/m 0 min 2 min 0 W/m 12,6 km/h (3 Bft)
12.12.2014 23:12 6,2 C 4,4 C 95 % 1002,9 hPa 0,0 l/m 0 min 2 min 0 W/m 12,6 km/h (3 Bft)
12.12.2014 23:14 6,2 C 4,4 C 95 % 1002,9 hPa 0,2 l/m 0 min 2 min 0 W/m 12,6 km/h (3 Bft)
12.12.2014 23:16 6,1 C 4,4 C 95 % 1002,9 hPa 0,0 l/m 0 min 2 min 0 W/m 12,6 km/h (3 Bft)
12.12.2014 23:18 6,1 C 4,4 C 95 % 1003,0 hPa 0,0 l/m 0 min 2 min 0 W/m 12,6 km/h (3 Bft)
12.12.2014 23:20 6,1 C 4,4 C 95 % 1003,0 hPa 0,0 l/m 0 min 2 min 0 W/m 10,5 km/h (2 Bft)
12.12.2014 23:22 6,1 C 4,4 C 95 % 1002,9 hPa 0,0 l/m 0 min 2 min 0 W/m 14,6 km/h (3 Bft)
12.12.2014 23:24 6,1 C 4,4 C 95 % 1002,9 hPa 0,2 l/m 0 min 2 min 0 W/m 8,4 km/h (2 Bft)
12.12.2014 23:26 6,1 C 4,4 C 95 % 1003,0 hPa 0,0 l/m 0 min 2 min 0 W/m 10,5 km/h (2 Bft)
12.12.2014 23:28 6,1 C 4,4 C 95 % 1002,9 hPa 0,0 l/m 0 min 2 min 0 W/m 12,6 km/h (3 Bft)
12.12.2014 23:30 6,1 C 4,4 C 95 % 1003,0 hPa 0,0 l/m 0 min 2 min 0 W/m 14,6 km/h (3 Bft)
12.12.2014 23:32 6,0 C 4,4 C 95 % 1003,0 hPa 0,0 l/m 0 min 0 min 0 W/m 10,5 km/h (2 Bft)
12.12.2014 23:34 6,0 C 4,4 C 95 % 1003,0 hPa 0,0 l/m 0 min 0 min 0 W/m 10,5 km/h (2 Bft)
12.12.2014 23:36 6,0 C 4,4 C 95 % 1003,1 hPa 0,0 l/m 0 min 0 min 0 W/m 10,5 km/h (2 Bft)
12.12.2014 23:38 6,0 C 4,4 C 95 % 1003,1 hPa 0,0 l/m 0 min 0 min 0 W/m 14,6 km/h (3 Bft)
12.12.2014 23:40 6,0 C 4,4 C 95 % 1003,1 hPa 0,0 l/m 0 min 0 min 0 W/m 10,5 km/h (2 Bft)
12.12.2014 23:42 6,0 C 4,4 C 95 % 1003,1 hPa 0,0 l/m 0 min 0 min 0 W/m 10,5 km/h (2 Bft)
12.12.2014 23:44 6,0 C 4,4 C 95 % 1003,1 hPa 0,0 l/m 0 min 0 min 0 W/m 6,3 km/h (2 Bft)
12.12.2014 23:46 6,0 C 4,4 C 95 % 1003,1 hPa 0,0 l/m 0 min 0 min 0 W/m 14,6 km/h (3 Bft)
12.12.2014 23:48 6,0 C 4,4 C 95 % 1003,1 hPa 0,0 l/m 0 min 0 min 0 W/m 10,5 km/h (2 Bft)
12.12.2014 23:50 6,0 C 4,4 C 95 % 1003,1 hPa 0,0 l/m 0 min 0 min 0 W/m 10,5 km/h (2 Bft)
12.12.2014 23:52 6,0 C 4,4 C 95 % 1003,1 hPa 0,0 l/m 0 min 0 min 0 W/m 10,5 km/h (2 Bft)
12.12.2014 23:54 6,0 C 4,4 C 95 % 1003,2 hPa 0,0 l/m 0 min 0 min 0 W/m 12,6 km/h (3 Bft)
12.12.2014 23:56 5,9 C 4,4 C 95 % 1003,3 hPa 0,0 l/m 0 min 0 min 0 W/m 8,4 km/h (2 Bft)
12.12.2014 23:58 5,9 C 4,4 C 95 % 1003,3 hPa 0,0 l/m 0 min 0 min 0 W/m 14,6 km/h (3 Bft)
_ Min-Zeit 23:54 00:48 08:54 15:46 - - - - 23:44
Minimum _ 5,9 C 4,4 C 83 % 995,1 hPa - - - - 6,3 km/h (2 Bft)
_ Max-Zeit 12:38 14:44 17:06 00:02 16:26 12:16 00:00 12:16 12:46
Maximum _ 9,6 C 8,3 C 96 % 1007,9 hPa 0,4 l/m 2 min 2 min 139 W/m 75,3 km/h
W-SW (9 Bft)
Durchschnitt _ 8,1 C 6,3 C 91 % 999,8 hPa #14,2 l/m #2 min. #10:41 h 50 W/m 36,6 km/h (5 Bft)
© 2015 W. Hausmann